Wetterdaten: Dienstag, 01.08.2017
Datum Zeit Temp. Aussen Temp. o. S. +5cm Feuchte Auss BlattFeu 1 Luftdruck Regen Sonnenschein Regendauer Solar Windben Empfang
01.08.2017 00:00 19,7 C 18,9 C 17,8 C 73 % 0 lf 1012,8 hPa 0,0 l/m 0 min 0 min 0 W/m 6,3 km/h (2 Bft) 93,62 %
01.08.2017 00:02 19,7 C 18,9 C 17,8 C 73 % 0 lf 1012,9 hPa 0,0 l/m 0 min 0 min 0 W/m 2,1 km/h (1 Bft) 9,09 %
01.08.2017 00:04 19,7 C 18,9 C 17,8 C 73 % 0 lf 1012,9 hPa 0,0 l/m 0 min 0 min 0 W/m 2,1 km/h (1 Bft) 4,76 %
01.08.2017 00:07 19,7 C 18,9 C 17,2 C 74 % 0 lf 1012,7 hPa 0,0 l/m 0 min 0 min 0 W/m 2,1 km/h (1 Bft) 4,76 %
01.08.2017 00:10 19,7 C 18,3 C 17,2 C 74 % 0 lf 1012,8 hPa 0,0 l/m 0 min 0 min 0 W/m 8,4 km/h (2 Bft) 95,15 %
01.08.2017 00:12 19,7 C 18,9 C 17,2 C 74 % 0 lf 1012,8 hPa 0,0 l/m 0 min 0 min 0 W/m 4,2 km/h (1 Bft) 97,87 %
01.08.2017 00:14 19,7 C 18,9 C 17,2 C 74 % 0 lf 1012,9 hPa 0,0 l/m 0 min 0 min 0 W/m 6,3 km/h (2 Bft) 95,74 %
01.08.2017 00:16 19,6 C 18,9 C 17,2 C 74 % 0 lf 1013,0 hPa 0,0 l/m 0 min 0 min 0 W/m 4,2 km/h (1 Bft) 97,83 %
01.08.2017 00:18 19,6 C 18,9 C 17,2 C 74 % 0 lf 1013,1 hPa 0,0 l/m 0 min 0 min 0 W/m 4,2 km/h (1 Bft) 93,62 %
01.08.2017 00:20 19,6 C 18,9 C 17,2 C 74 % 0 lf 1013,1 hPa 0,0 l/m 0 min 0 min 0 W/m 4,2 km/h (1 Bft) 97,87 %
01.08.2017 00:22 19,6 C 18,9 C 17,2 C 74 % 0 lf 1013,2 hPa 0,0 l/m 0 min 0 min 0 W/m 4,2 km/h (1 Bft) 93,62 %
01.08.2017 00:24 19,6 C 18,9 C 17,8 C 74 % 0 lf 1013,2 hPa 0,0 l/m 0 min 0 min 0 W/m 4,2 km/h (1 Bft) 95,74 %
01.08.2017 00:26 19,6 C 18,9 C 17,8 C 74 % 0 lf 1013,2 hPa 0,0 l/m 0 min 0 min 0 W/m 4,2 km/h (1 Bft) 97,87 %
01.08.2017 00:28 19,6 C 18,9 C 17,8 C 74 % 0 lf 1013,2 hPa 0,0 l/m 0 min 0 min 0 W/m 4,2 km/h (1 Bft) 95,65 %
01.08.2017 00:30 19,6 C 18,9 C 17,8 C 74 % 0 lf 1013,1 hPa 0,0 l/m 0 min 0 min 0 W/m 2,1 km/h (1 Bft) 95,74 %
01.08.2017 00:32 19,6 C 18,9 C 17,8 C 74 % 0 lf 1013,2 hPa 0,0 l/m 0 min 0 min 0 W/m 2,1 km/h (1 Bft) 95,74 %
01.08.2017 00:34 19,6 C 18,9 C 17,8 C 75 % 0 lf 1013,2 hPa 0,0 l/m 0 min 0 min 0 W/m 2,1 km/h (1 Bft) 93,62 %
01.08.2017 00:36 19,6 C 18,9 C 17,8 C 75 % 0 lf 1013,2 hPa 0,0 l/m 0 min 0 min 0 W/m 2,1 km/h (1 Bft) 91,49 %
01.08.2017 00:38 19,6 C 18,9 C 17,8 C 75 % 0 lf 1013,2 hPa 0,0 l/m 0 min 0 min 0 W/m 2,1 km/h (1 Bft) 95,74 %
01.08.2017 00:40 19,6 C 18,9 C 17,8 C 75 % 0 lf 1013,2 hPa 0,0 l/m 0 min 0 min 0 W/m 2,1 km/h (1 Bft) 91,30 %
01.08.2017 00:42 19,6 C 18,3 C 17,2 C 75 % 0 lf 1013,2 hPa 0,0 l/m 0 min 0 min 0 W/m 0,0 km/h (0 Bft) 95,74 %
01.08.2017 00:44 19,5 C 18,3 C 17,2 C 75 % 0 lf 1013,2 hPa 0,0 l/m 0 min 0 min 0 W/m 0,0 km/h (0 Bft) 95,74 %
01.08.2017 00:46 19,5 C 18,3 C 17,2 C 75 % 0 lf 1013,2 hPa 0,0 l/m 0 min 0 min 0 W/m 0,0 km/h (0 Bft) 91,49 %
01.08.2017 00:48 19,5 C 18,9 C 17,2 C 75 % 0 lf 1013,2 hPa 0,0 l/m 0 min 0 min 0 W/m 0,0 km/h (0 Bft) 93,62 %
01.08.2017 00:50 19,5 C 18,9 C 17,2 C 75 % 0 lf 1013,1 hPa 0,0 l/m 0 min 0 min 0 W/m 0,0 km/h (0 Bft) 91,30 %
01.08.2017 00:52 19,5 C 18,9 C 17,2 C 76 % 0 lf 1013,0 hPa 0,0 l/m 0 min 0 min 0 W/m 0,0 km/h (0 Bft) 93,62 %
01.08.2017 00:54 19,5 C 18,9 C 17,2 C 76 % 0 lf 1013,0 hPa 0,0 l/m 0 min 0 min 0 W/m 0,0 km/h (0 Bft) 91,49 %
01.08.2017 00:56 19,4 C 18,9 C 17,2 C 76 % 7 lf 1013,0 hPa 0,0 l/m 0 min 2 min 0 W/m 0,0 km/h (0 Bft) 95,74 %
01.08.2017 00:58 19,4 C 18,3 C 17,2 C 76 % 12 lf 1012,9 hPa 0,0 l/m 0 min 2 min 0 W/m 0,0 km/h (0 Bft) 97,87 %
01.08.2017 01:00 19,4 C 18,3 C 17,2 C 76 % 12 lf 1012,7 hPa 0,0 l/m 0 min 2 min 0 W/m 6,3 km/h (2 Bft) 91,49 %
01.08.2017 01:02 19,4 C 18,3 C 16,7 C 76 % 10 lf 1012,6 hPa 0,0 l/m 0 min 2 min 0 W/m 10,5 km/h (2 Bft) 93,62 %
01.08.2017 01:04 19,4 C 18,3 C 16,7 C 77 % 4 lf 1012,7 hPa 0,0 l/m 0 min 0 min 0 W/m 10,5 km/h (2 Bft) 95,65 %
01.08.2017 01:06 19,4 C 18,3 C 16,7 C 77 % 2 lf 1012,7 hPa 0,0 l/m 0 min 0 min 0 W/m 6,3 km/h (2 Bft) 91,49 %
01.08.2017 01:08 19,4 C 18,3 C 16,7 C 78 % 0 lf 1012,8 hPa 0,0 l/m 0 min 2 min 0 W/m 4,2 km/h (1 Bft) 91,49 %
01.08.2017 01:10 19,4 C 17,8 C 16,7 C 78 % 0 lf 1012,8 hPa 0,0 l/m 0 min 2 min 0 W/m 6,3 km/h (2 Bft) 93,62 %
01.08.2017 01:12 19,4 C 17,8 C 16,7 C 78 % 1 lf 1012,7 hPa 0,0 l/m 0 min 2 min 0 W/m 10,5 km/h (2 Bft) 93,62 %
01.08.2017 01:14 19,4 C 17,8 C 16,7 C 78 % 0 lf 1012,7 hPa 0,0 l/m 0 min 2 min 0 W/m 6,3 km/h (2 Bft) 93,48 %
01.08.2017 01:16 19,4 C 17,2 C 16,7 C 79 % 12 lf 1012,7 hPa 0,0 l/m 0 min 2 min 0 W/m 6,3 km/h (2 Bft) 93,62 %
01.08.2017 01:18 19,4 C 17,2 C 16,1 C 79 % 15 lf 1012,7 hPa 0,0 l/m 0 min 2 min 0 W/m 4,2 km/h (1 Bft) 91,49 %
01.08.2017 01:20 19,4 C 17,2 C 16,1 C 79 % 15 lf 1012,5 hPa 0,0 l/m 0 min 2 min 2 W/m 6,3 km/h (2 Bft) 91,49 %
01.08.2017 01:22 19,4 C 17,2 C 16,1 C 79 % 15 lf 1012,5 hPa 0,0 l/m 0 min 2 min 5 W/m 6,3 km/h (2 Bft) 93,62 %
01.08.2017 01:24 19,4 C 17,2 C 16,1 C 80 % 15 lf 1012,5 hPa 0,0 l/m 0 min 2 min 5 W/m 6,3 km/h (2 Bft) 93,62 %
01.08.2017 01:26 19,4 C 17,2 C 16,1 C 80 % 15 lf 1012,5 hPa 0,0 l/m 0 min 2 min 5 W/m 4,2 km/h (1 Bft) 91,30 %
01.08.2017 01:28 19,4 C 17,2 C 16,1 C 80 % 15 lf 1012,3 hPa 0,0 l/m 0 min 2 min 4 W/m 6,3 km/h (2 Bft) 91,49 %
01.08.2017 01:30 19,4 C 17,2 C 16,1 C 80 % 15 lf 1011,8 hPa 0,0 l/m 0 min 2 min 0 W/m 12,6 km/h (3 Bft) 95,74 %
01.08.2017 01:32 19,3 C 17,2 C 16,1 C 81 % 15 lf 1011,8 hPa 0,0 l/m 0 min 2 min 0 W/m 6,3 km/h (2 Bft) 97,87 %
01.08.2017 01:34 19,3 C 16,7 C 16,1 C 81 % 15 lf 1011,9 hPa 0,0 l/m 0 min 2 min 0 W/m 4,2 km/h (1 Bft) 95,74 %
01.08.2017 01:36 19,3 C 16,7 C 15,6 C 81 % 15 lf 1011,6 hPa 0,0 l/m 0 min 2 min 0 W/m 8,4 km/h (2 Bft) 93,62 %
01.08.2017 01:38 19,3 C 16,7 C 15,6 C 81 % 15 lf 1011,5 hPa 0,2 l/m 0 min 2 min 0 W/m 10,5 km/h (2 Bft) 97,83 %
01.08.2017 01:40 19,3 C 16,7 C 15,6 C 81 % 15 lf 1011,6 hPa 0,0 l/m 0 min 2 min 0 W/m 6,3 km/h (2 Bft) 100,00 %
01.08.2017 01:42 19,3 C 16,7 C 15,6 C 81 % 15 lf 1011,7 hPa 0,0 l/m 0 min 2 min 0 W/m 6,3 km/h (2 Bft) 100,00 %
01.08.2017 01:44 19,3 C 16,1 C 15,6 C 81 % 15 lf 1011,9 hPa 0,0 l/m 0 min 2 min 0 W/m 2,1 km/h (1 Bft) 97,87 %
01.08.2017 01:46 19,2 C 16,7 C 15,6 C 81 % 15 lf 1011,9 hPa 0,0 l/m 0 min 2 min 0 W/m 6,3 km/h (2 Bft) 97,87 %
01.08.2017 01:48 19,2 C 16,1 C 15,6 C 81 % 15 lf 1011,8 hPa 0,0 l/m 0 min 0 min 0 W/m 8,4 km/h (2 Bft) 95,74 %
01.08.2017 01:50 19,2 C 16,1 C 15,6 C 81 % 15 lf 1011,8 hPa 0,0 l/m 0 min 0 min 0 W/m 6,3 km/h (2 Bft) 100,00 %
01.08.2017 01:53 19,2 C 16,1 C 15,6 C 81 % 15 lf 1011,7 hPa 0,0 l/m 0 min 0 min 3 W/m 6,3 km/h (2 Bft) 100,00 %
01.08.2017 01:54 19,2 C 16,1 C 15,6 C 81 % 15 lf 1011,7 hPa 0,0 l/m 0 min 0 min 5 W/m 4,2 km/h (1 Bft) 100,00 %
01.08.2017 01:56 19,1 C 16,1 C 15,6 C 82 % 15 lf 1011,6 hPa 0,0 l/m 0 min 0 min 5 W/m 6,3 km/h (2 Bft) 97,87 %
01.08.2017 01:58 19,1 C 16,7 C 15,0 C 82 % 15 lf 1011,5 hPa 0,0 l/m 0 min 0 min 5 W/m 8,4 km/h (2 Bft) 95,74 %
01.08.2017 02:00 19,1 C 16,7 C 15,6 C 82 % 15 lf 1011,6 hPa 0,0 l/m 0 min 2 min 5 W/m 4,2 km/h (1 Bft) 97,87 %
01.08.2017 02:02 19,0 C 16,7 C 15,6 C 82 % 15 lf 1011,6 hPa 0,0 l/m 0 min 2 min 5 W/m 6,3 km/h (2 Bft) 100,00 %
01.08.2017 02:04 18,9 C 16,7 C 15,6 C 82 % 15 lf 1011,6 hPa 0,0 l/m 0 min 2 min 5 W/m 6,3 km/h (2 Bft) 97,87 %
01.08.2017 02:06 18,9 C 16,7 C 15,6 C 82 % 15 lf 1011,6 hPa 0,0 l/m 0 min 2 min 5 W/m 6,3 km/h (2 Bft) 100,00 %
01.08.2017 02:08 18,9 C 16,7 C 15,6 C 82 % 15 lf 1011,6 hPa 0,0 l/m 0 min 0 min 5 W/m 6,3 km/h (2 Bft) 100,00 %
01.08.2017 02:10 18,9 C 16,7 C 15,6 C 82 % 15 lf 1011,6 hPa 0,0 l/m 0 min 0 min 5 W/m 8,4 km/h (2 Bft) 97,87 %
01.08.2017 02:12 18,8 C 16,7 C 15,6 C 82 % 15 lf 1011,6 hPa 0,0 l/m 0 min 0 min 0 W/m 4,2 km/h (1 Bft) 97,83 %
01.08.2017 02:14 18,8 C 16,7 C 15,6 C 82 % 15 lf 1011,8 hPa 0,0 l/m 0 min 0 min 5 W/m 4,2 km/h (1 Bft) 100,00 %
01.08.2017 02:16 18,8 C 16,7 C 15,6 C 82 % 15 lf 1011,9 hPa 0,0 l/m 0 min 0 min 5 W/m 0,0 km/h (0 Bft) 97,87 %
01.08.2017 02:18 18,7 C 16,7 C 15,0 C 82 % 15 lf 1011,9 hPa 0,0 l/m 0 min 0 min 5 W/m 0,0 km/h (0 Bft) 95,74 %
01.08.2017 02:20 18,7 C 16,7 C 15,0 C 82 % 15 lf 1011,9 hPa 0,0 l/m 0 min 0 min 5 W/m 0,0 km/h (0 Bft) 100,00 %
01.08.2017 02:22 18,7 C 16,1 C 15,0 C 82 % 14 lf 1011,9 hPa 0,0 l/m 0 min 0 min 5 W/m 0,0 km/h (0 Bft) 100,00 %
01.08.2017 02:24 18,7 C 16,1 C 15,0 C 82 % 13 lf 1012,0 hPa 0,0 l/m 0 min 0 min 2 W/m 0,0 km/h (0 Bft) 100,00 %
01.08.2017 02:26 18,7 C 16,1 C 15,0 C 83 % 13 lf 1012,0 hPa 0,0 l/m 0 min 0 min 0 W/m 4,2 km/h (1 Bft) 97,83 %
01.08.2017 02:28 18,7 C 16,1 C 15,0 C 83 % 12 lf 1012,0 hPa 0,0 l/m 0 min 0 min 3 W/m 2,1 km/h (1 Bft) 100,00 %
01.08.2017 02:30 18,6 C 16,1 C 15,0 C 83 % 11 lf 1012,0 hPa 0,0 l/m 0 min 0 min 0 W/m 0,0 km/h (0 Bft) 100,00 %
01.08.2017 02:32 18,6 C 16,1 C 15,0 C 83 % 9 lf 1011,9 hPa 0,0 l/m 0 min 0 min 5 W/m 0,0 km/h (0 Bft) 97,87 %
01.08.2017 02:34 18,6 C 16,1 C 15,0 C 83 % 7 lf 1011,9 hPa 0,0 l/m 0 min 0 min 0 W/m 0,0 km/h (0 Bft) 97,87 %
01.08.2017 02:36 18,6 C 16,1 C 15,0 C 83 % 4 lf 1011,9 hPa 0,0 l/m 0 min 0 min 0 W/m 4,2 km/h (1 Bft) 100,00 %
01.08.2017 02:38 18,5 C 16,1 C 15,0 C 83 % 4 lf 1012,0 hPa 0,0 l/m 0 min 0 min 0 W/m 4,2 km/h (1 Bft) 100,00 %
01.08.2017 02:40 18,5 C 16,1 C 15,0 C 83 % 3 lf 1012,1 hPa 0,0 l/m 0 min 0 min 0 W/m 0,0 km/h (0 Bft) 93,62 %
01.08.2017 02:42 18,4 C 16,1 C 15,0 C 84 % 3 lf 1012,3 hPa 0,0 l/m 0 min 0 min 0 W/m 4,2 km/h (1 Bft) 97,87 %
01.08.2017 02:44 18,4 C 16,1 C 15,0 C 84 % 2 lf 1012,3 hPa 0,0 l/m 0 min 0 min 0 W/m 4,2 km/h (1 Bft) 95,74 %
01.08.2017 02:46 18,3 C 16,1 C 15,0 C 84 % 1 lf 1012,3 hPa 0,0 l/m 0 min 0 min 0 W/m 2,1 km/h (1 Bft) 97,87 %
01.08.2017 02:48 18,3 C 16,1 C 15,0 C 85 % 0 lf 1012,3 hPa 0,0 l/m 0 min 0 min 0 W/m 0,0 km/h (0 Bft) 93,48 %
01.08.2017 02:50 18,3 C 16,1 C 15,0 C 85 % 0 lf 1012,3 hPa 0,0 l/m 0 min 0 min 5 W/m 2,1 km/h (1 Bft) 97,87 %
01.08.2017 02:52 18,2 C 16,1 C 15,0 C 85 % 0 lf 1012,3 hPa 0,0 l/m 0 min 0 min 0 W/m 2,1 km/h (1 Bft) 93,62 %
01.08.2017 02:54 18,2 C 16,1 C 15,0 C 85 % 0 lf 1012,2 hPa 0,0 l/m 0 min 0 min 0 W/m 0,0 km/h (0 Bft) 97,87 %
01.08.2017 02:56 18,2 C 16,1 C 14,4 C 85 % 0 lf 1012,2 hPa 0,0 l/m 0 min 0 min 0 W/m 0,0 km/h (0 Bft) 95,74 %
01.08.2017 02:58 18,1 C 16,1 C 14,4 C 85 % 0 lf 1012,2 hPa 0,0 l/m 0 min 0 min 0 W/m 0,0 km/h (0 Bft) 93,62 %
01.08.2017 03:00 18,1 C 16,1 C 14,4 C 85 % 1 lf 1012,2 hPa 0,0 l/m 0 min 0 min 0 W/m 0,0 km/h (0 Bft) 93,48 %
01.08.2017 03:02 18,0 C 16,1 C 14,4 C 85 % 1 lf 1012,3 hPa 0,0 l/m 0 min 0 min 0 W/m 2,1 km/h (1 Bft) 95,74 %
01.08.2017 03:04 18,0 C 15,6 C 14,4 C 85 % 1 lf 1012,4 hPa 0,0 l/m 0 min 0 min 0 W/m 0,0 km/h (0 Bft) 93,62 %
01.08.2017 03:06 17,9 C 15,6 C 14,4 C 86 % 1 lf 1012,4 hPa 0,0 l/m 0 min 0 min 0 W/m 0,0 km/h (0 Bft) 93,62 %
01.08.2017 03:08 17,9 C 16,1 C 14,4 C 86 % 1 lf 1012,4 hPa 0,0 l/m 0 min 0 min 0 W/m 2,1 km/h (1 Bft) 93,62 %
01.08.2017 03:10 17,8 C 16,1 C 14,4 C 86 % 1 lf 1012,5 hPa 0,0 l/m 0 min 0 min 0 W/m 2,1 km/h (1 Bft) 93,62 %
01.08.2017 03:12 17,8 C 16,1 C 15,0 C 86 % 0 lf 1012,5 hPa 0,0 l/m 0 min 0 min 0 W/m 2,1 km/h (1 Bft) 93,48 %
01.08.2017 03:14 17,8 C 16,1 C 15,0 C 86 % 0 lf 1012,4 hPa 0,0 l/m 0 min 0 min 0 W/m 0,0 km/h (0 Bft) 91,49 %
01.08.2017 03:16 17,7 C 16,1 C 15,0 C 86 % 0 lf 1012,4 hPa 0,0 l/m 0 min 0 min 0 W/m 0,0 km/h (0 Bft) 89,36 %
01.08.2017 03:18 17,7 C 15,6 C 15,0 C 86 % 0 lf 1012,4 hPa 0,0 l/m 0 min 0 min 0 W/m 0,0 km/h (0 Bft) 95,74 %
01.08.2017 03:20 17,7 C 15,6 C 15,0 C 86 % 0 lf 1012,4 hPa 0,0 l/m 0 min 0 min 0 W/m 0,0 km/h (0 Bft) 93,62 %
01.08.2017 03:22 17,6 C 15,6 C 15,0 C 86 % 0 lf 1012,4 hPa 0,0 l/m 0 min 0 min 0 W/m 2,1 km/h (1 Bft) 93,62 %
01.08.2017 03:24 17,6 C 16,1 C 14,4 C 87 % 0 lf 1012,4 hPa 0,0 l/m 0 min 0 min 4 W/m 4,2 km/h (1 Bft) 93,48 %
01.08.2017 03:26 17,6 C 15,6 C 14,4 C 87 % 0 lf 1012,4 hPa 0,0 l/m 0 min 0 min 5 W/m 2,1 km/h (1 Bft) 93,62 %
01.08.2017 03:28 17,6 C 15,6 C 14,4 C 87 % 0 lf 1012,4 hPa 0,0 l/m 0 min 0 min 0 W/m 4,2 km/h (1 Bft) 91,49 %
01.08.2017 03:30 17,5 C 15,6 C 14,4 C 87 % 0 lf 1012,3 hPa 0,0 l/m 0 min 0 min 0 W/m 0,0 km/h (0 Bft) 93,62 %
01.08.2017 03:32 17,4 C 15,6 C 14,4 C 87 % 0 lf 1012,2 hPa 0,0 l/m 0 min 0 min 0 W/m 0,0 km/h (0 Bft) 93,62 %
01.08.2017 03:34 17,4 C 15,6 C 14,4 C 87 % 0 lf 1012,2 hPa 0,0 l/m 0 min 0 min 0 W/m 0,0 km/h (0 Bft) 97,83 %
01.08.2017 03:36 17,4 C 15,6 C 14,4 C 87 % 0 lf 1012,3 hPa 0,0 l/m 0 min 0 min 0 W/m 0,0 km/h (0 Bft) 95,74 %
01.08.2017 03:38 17,4 C 15,6 C 14,4 C 87 % 0 lf 1012,3 hPa 0,0 l/m 0 min 0 min 0 W/m 2,1 km/h (1 Bft) 97,87 %
01.08.2017 03:40 17,3 C 15,6 C 14,4 C 87 % 0 lf 1012,4 hPa 0,0 l/m 0 min 0 min 0 W/m 2,1 km/h (1 Bft) 95,74 %
01.08.2017 03:42 17,3 C 15,6 C 14,4 C 87 % 0 lf 1012,3 hPa 0,0 l/m 0 min 0 min 0 W/m 0,0 km/h (0 Bft) 93,62 %
01.08.2017 03:44 17,3 C 15,6 C 14,4 C 87 % 0 lf 1012,3 hPa 0,0 l/m 0 min 0 min 0 W/m 0,0 km/h (0 Bft) 97,87 %
01.08.2017 03:46 17,2 C 15,6 C 14,4 C 88 % 0 lf 1012,4 hPa 0,0 l/m 0 min 0 min 0 W/m 2,1 km/h (1 Bft) 95,65 %
01.08.2017 03:48 17,2 C 15,6 C 14,4 C 88 % 0 lf 1012,4 hPa 0,0 l/m 0 min 0 min 0 W/m 4,2 km/h (1 Bft) 97,87 %
01.08.2017 03:50 17,2 C 15,6 C 14,4 C 88 % 0 lf 1012,4 hPa 0,0 l/m 0 min 0 min 0 W/m 4,2 km/h (1 Bft) 97,87 %
01.08.2017 03:52 17,1 C 15,6 C 14,4 C 88 % 0 lf 1012,4 hPa 0,0 l/m 0 min 0 min 0 W/m 4,2 km/h (1 Bft) 97,87 %
01.08.2017 03:54 17,1 C 15,6 C 14,4 C 88 % 0 lf 1012,4 hPa 0,0 l/m 0 min 0 min 0 W/m 4,2 km/h (1 Bft) 97,87 %
01.08.2017 03:56 17,1 C 15,6 C 14,4 C 88 % 0 lf 1012,4 hPa 0,0 l/m 0 min 0 min 0 W/m 4,2 km/h (1 Bft) 97,87 %
01.08.2017 03:58 17,1 C 15,6 C 14,4 C 88 % 1 lf 1012,4 hPa 0,0 l/m 0 min 0 min 0 W/m 4,2 km/h (1 Bft) 95,65 %
01.08.2017 04:00 17,1 C 15,6 C 14,4 C 89 % 0 lf 1012,4 hPa 0,0 l/m 0 min 0 min 0 W/m 4,2 km/h (1 Bft) 97,87 %
01.08.2017 04:02 17,0 C 15,6 C 14,4 C 89 % 0 lf 1012,4 hPa 0,0 l/m 0 min 0 min 0 W/m 6,3 km/h (2 Bft) 100,00 %
01.08.2017 04:04 17,0 C 15,6 C 14,4 C 89 % 0 lf 1012,3 hPa 0,0 l/m 0 min 0 min 0 W/m 6,3 km/h (2 Bft) 97,87 %
01.08.2017 04:06 16,9 C 15,6 C 14,4 C 89 % 0 lf 1012,3 hPa 0,0 l/m 0 min 0 min 0 W/m 4,2 km/h (1 Bft) 93,62 %
01.08.2017 04:08 16,9 C 15,6 C 14,4 C 89 % 0 lf 1012,2 hPa 0,0 l/m 0 min 0 min 0 W/m 4,2 km/h (1 Bft) 97,87 %
01.08.2017 04:10 16,9 C 15,6 C 14,4 C 89 % 0 lf 1012,3 hPa 0,0 l/m 0 min 0 min 0 W/m 4,2 km/h (1 Bft) 97,83 %
01.08.2017 04:12 16,9 C 15,6 C 14,4 C 89 % 1 lf 1012,2 hPa 0,0 l/m 0 min 0 min 0 W/m 4,2 km/h (1 Bft) 97,87 %
01.08.2017 04:14 16,9 C 15,6 C 13,9 C 89 % 1 lf 1012,2 hPa 0,0 l/m 0 min 0 min 0 W/m 4,2 km/h (1 Bft) 100,00 %
01.08.2017 04:16 16,8 C 15,6 C 13,9 C 89 % 0 lf 1012,0 hPa 0,0 l/m 0 min 0 min 0 W/m 2,1 km/h (1 Bft) 97,87 %
01.08.2017 04:18 16,8 C 15,6 C 13,9 C 89 % 0 lf 1012,0 hPa 0,0 l/m 0 min 0 min 0 W/m 2,1 km/h (1 Bft) 93,62 %
01.08.2017 04:20 16,8 C 15,6 C 13,9 C 89 % 0 lf 1011,9 hPa 0,0 l/m 0 min 0 min 5 W/m 2,1 km/h (1 Bft) 100,00 %
01.08.2017 04:22 16,8 C 15,6 C 13,9 C 89 % 0 lf 1011,9 hPa 0,0 l/m 0 min 0 min 5 W/m 0,0 km/h (0 Bft) 97,83 %
01.08.2017 04:24 16,7 C 15,0 C 13,9 C 89 % 0 lf 1011,9 hPa 0,0 l/m 0 min 0 min 5 W/m 2,1 km/h (1 Bft) 100,00 %
01.08.2017 04:26 16,7 C 15,0 C 13,9 C 89 % 0 lf 1012,0 hPa 0,0 l/m 0 min 0 min 5 W/m 2,1 km/h (1 Bft) 100,00 %
01.08.2017 04:28 16,7 C 15,0 C 13,9 C 89 % 0 lf 1012,0 hPa 0,0 l/m 0 min 0 min 0 W/m 2,1 km/h (1 Bft) 97,87 %
01.08.2017 04:30 16,7 C 15,6 C 13,9 C 89 % 0 lf 1012,0 hPa 0,0 l/m 0 min 0 min 0 W/m 2,1 km/h (1 Bft) 95,74 %
01.08.2017 04:32 16,6 C 15,6 C 13,9 C 89 % 0 lf 1012,1 hPa 0,0 l/m 0 min 0 min 0 W/m 2,1 km/h (1 Bft) 97,87 %
01.08.2017 04:34 16,6 C 15,0 C 13,9 C 89 % 0 lf 1012,2 hPa 0,0 l/m 0 min 0 min 0 W/m 0,0 km/h (0 Bft) 97,83 %
01.08.2017 04:36 16,6 C 15,0 C 13,9 C 89 % 0 lf 1012,2 hPa 0,0 l/m 0 min 0 min 0 W/m 0,0 km/h (0 Bft) 95,74 %
01.08.2017 04:38 16,6 C 15,0 C 13,9 C 89 % 0 lf 1012,3 hPa 0,0 l/m 0 min 0 min 0 W/m 0,0 km/h (0 Bft) 97,87 %
01.08.2017 04:40 16,6 C 15,6 C 14,4 C 89 % 0 lf 1012,2 hPa 0,0 l/m 0 min 0 min 0 W/m 0,0 km/h (0 Bft) 93,62 %
01.08.2017 04:42 16,5 C 15,6 C 14,4 C 89 % 0 lf 1012,2 hPa 0,0 l/m 0 min 0 min 0 W/m 0,0 km/h (0 Bft) 97,87 %
01.08.2017 04:44 16,5 C 15,6 C 14,4 C 89 % 0 lf 1012,2 hPa 0,0 l/m 0 min 0 min 0 W/m 0,0 km/h (0 Bft) 97,87 %
01.08.2017 04:46 16,5 C 15,6 C 14,4 C 89 % 0 lf 1012,2 hPa 0,0 l/m 0 min 0 min 0 W/m 0,0 km/h (0 Bft) 95,65 %
01.08.2017 04:48 16,4 C 15,6 C 14,4 C 89 % 0 lf 1012,2 hPa 0,0 l/m 0 min 0 min 0 W/m 0,0 km/h (0 Bft) 95,74 %
01.08.2017 04:50 16,4 C 15,6 C 14,4 C 89 % 0 lf 1012,3 hPa 0,0 l/m 0 min 0 min 0 W/m 0,0 km/h (0 Bft) 97,87 %
01.08.2017 04:52 16,4 C 15,6 C 14,4 C 89 % 0 lf 1012,3 hPa 0,0 l/m 0 min 0 min 0 W/m 0,0 km/h (0 Bft) 97,87 %
01.08.2017 04:54 16,4 C 15,6 C 14,4 C 89 % 0 lf 1012,4 hPa 0,0 l/m 0 min 0 min 0 W/m 0,0 km/h (0 Bft) 95,74 %
01.08.2017 04:56 16,4 C 15,6 C 14,4 C 89 % 0 lf 1012,4 hPa 0,0 l/m 0 min 0 min 5 W/m 0,0 km/h (0 Bft) 93,62 %
01.08.2017 04:58 16,4 C 15,6 C 14,4 C 89 % 0 lf 1012,3 hPa 0,0 l/m 0 min 0 min 5 W/m 0,0 km/h (0 Bft) 95,65 %
01.08.2017 05:00 16,4 C 15,6 C 14,4 C 90 % 0 lf 1012,2 hPa 0,0 l/m 0 min 0 min 5 W/m 0,0 km/h (0 Bft) 95,74 %
01.08.2017 05:02 16,4 C 15,6 C 14,4 C 90 % 0 lf 1012,2 hPa 0,0 l/m 0 min 0 min 5 W/m 0,0 km/h (0 Bft) 93,62 %
01.08.2017 05:04 16,4 C 15,6 C 14,4 C 90 % 0 lf 1012,2 hPa 0,0 l/m 0 min 0 min 5 W/m 0,0 km/h (0 Bft) 95,74 %
01.08.2017 05:06 16,3 C 15,6 C 14,4 C 90 % 0 lf 1012,2 hPa 0,0 l/m 0 min 0 min 5 W/m 0,0 km/h (0 Bft) 91,49 %
01.08.2017 05:08 16,3 C 15,6 C 14,4 C 90 % 0 lf 1012,2 hPa 0,0 l/m 0 min 0 min 5 W/m 0,0 km/h (0 Bft) 95,65 %
01.08.2017 05:10 16,3 C 15,6 C 14,4 C 90 % 0 lf 1012,1 hPa 0,0 l/m 0 min 0 min 0 W/m 0,0 km/h (0 Bft) 93,62 %
01.08.2017 05:12 16,3 C 15,6 C 14,4 C 90 % 0 lf 1012,1 hPa 0,0 l/m 0 min 0 min 0 W/m 0,0 km/h (0 Bft) 95,74 %
01.08.2017 05:14 16,3 C 15,6 C 14,4 C 90 % 0 lf 1012,1 hPa 0,0 l/m 0 min 0 min 0 W/m 0,0 km/h (0 Bft) 95,74 %
01.08.2017 05:16 16,3 C 15,6 C 14,4 C 90 % 0 lf 1012,1 hPa 0,0 l/m 0 min 0 min 0 W/m 0,0 km/h (0 Bft) 93,62 %
01.08.2017 05:18 16,3 C 15,6 C 14,4 C 90 % 0 lf 1012,1 hPa 0,0 l/m 0 min 0 min 0 W/m 0,0 km/h (0 Bft) 91,49 %
01.08.2017 05:20 16,3 C 15,6 C 14,4 C 90 % 0 lf 1012,1 hPa 0,0 l/m 0 min 0 min 0 W/m 0,0 km/h (0 Bft) 95,65 %
01.08.2017 05:22 16,3 C 15,6 C 14,4 C 90 % 0 lf 1012,1 hPa 0,0 l/m 0 min 0 min 0 W/m 0,0 km/h (0 Bft) 95,74 %
01.08.2017 05:24 16,3 C 15,6 C 14,4 C 90 % 0 lf 1012,1 hPa 0,0 l/m 0 min 0 min 0 W/m 0,0 km/h (0 Bft) 95,74 %
01.08.2017 05:26 16,3 C 15,6 C 14,4 C 90 % 0 lf 1012,1 hPa 0,0 l/m 0 min 0 min 0 W/m 0,0 km/h (0 Bft) 97,87 %
01.08.2017 05:28 16,3 C 15,6 C 14,4 C 91 % 0 lf 1012,1 hPa 0,0 l/m 0 min 0 min 0 W/m 0,0 km/h (0 Bft) 95,74 %
01.08.2017 05:30 16,3 C 16,1 C 14,4 C 91 % 1 lf 1011,9 hPa 0,0 l/m 0 min 0 min 5 W/m 0,0 km/h (0 Bft) 97,87 %
01.08.2017 05:32 16,3 C 15,6 C 14,4 C 91 % 1 lf 1011,9 hPa 0,0 l/m 0 min 0 min 5 W/m 0,0 km/h (0 Bft) 97,83 %
01.08.2017 05:34 16,3 C 15,6 C 14,4 C 91 % 0 lf 1011,9 hPa 0,0 l/m 0 min 0 min 5 W/m 0,0 km/h (0 Bft) 97,87 %
01.08.2017 05:36 16,3 C 15,6 C 14,4 C 91 % 0 lf 1011,8 hPa 0,0 l/m 0 min 0 min 5 W/m 0,0 km/h (0 Bft) 97,87 %
01.08.2017 05:38 16,3 C 15,6 C 14,4 C 91 % 0 lf 1011,8 hPa 0,0 l/m 0 min 0 min 5 W/m 0,0 km/h (0 Bft) 97,87 %
01.08.2017 05:40 16,3 C 15,6 C 14,4 C 91 % 0 lf 1011,8 hPa 0,0 l/m 0 min 0 min 5 W/m 0,0 km/h (0 Bft) 95,74 %
01.08.2017 05:42 16,3 C 15,6 C 14,4 C 91 % 0 lf 1011,8 hPa 0,0 l/m 0 min 0 min 5 W/m 0,0 km/h (0 Bft) 97,87 %
01.08.2017 05:44 16,3 C 15,6 C 14,4 C 91 % 0 lf 1011,8 hPa 0,0 l/m 0 min 0 min 5 W/m 0,0 km/h (0 Bft) 97,83 %
01.08.2017 05:46 16,3 C 15,6 C 14,4 C 91 % 0 lf 1011,8 hPa 0,0 l/m 0 min 0 min 5 W/m 0,0 km/h (0 Bft) 97,87 %
01.08.2017 05:48 16,3 C 15,6 C 14,4 C 91 % 0 lf 1011,8 hPa 0,0 l/m 0 min 0 min 6 W/m 0,0 km/h (0 Bft) 97,87 %
01.08.2017 05:50 16,3 C 15,6 C 14,4 C 91 % 0 lf 1011,8 hPa 0,0 l/m 0 min 0 min 7 W/m 0,0 km/h (0 Bft) 93,62 %
01.08.2017 05:52 16,3 C 15,6 C 14,4 C 91 % 0 lf 1011,8 hPa 0,0 l/m 0 min 0 min 7 W/m 0,0 km/h (0 Bft) 97,87 %
01.08.2017 05:54 16,3 C 15,6 C 14,4 C 91 % 0 lf 1011,8 hPa 0,0 l/m 0 min 0 min 7 W/m 0,0 km/h (0 Bft) 95,74 %
01.08.2017 05:56 16,3 C 15,6 C 14,4 C 91 % 0 lf 1011,8 hPa 0,0 l/m 0 min 0 min 6 W/m 0,0 km/h (0 Bft) 95,65 %
01.08.2017 05:58 16,2 C 15,6 C 14,4 C 91 % 0 lf 1011,7 hPa 0,0 l/m 0 min 0 min 7 W/m 0,0 km/h (0 Bft) 97,87 %
01.08.2017 06:00 16,2 C 15,6 C 14,4 C 91 % 0 lf 1011,7 hPa 0,0 l/m 0 min 0 min 7 W/m 0,0 km/h (0 Bft) 97,87 %
01.08.2017 06:02 16,2 C 15,6 C 14,4 C 91 % 0 lf 1011,6 hPa 0,0 l/m 0 min 0 min 7 W/m 0,0 km/h (0 Bft) 95,74 %
01.08.2017 06:04 16,2 C 15,6 C 14,4 C 91 % 0 lf 1011,6 hPa 0,0 l/m 0 min 0 min 9 W/m 0,0 km/h (0 Bft) 93,62 %
01.08.2017 06:06 16,2 C 15,6 C 14,4 C 91 % 0 lf 1011,6 hPa 0,0 l/m 0 min 0 min 10 W/m 0,0 km/h (0 Bft) 97,83 %
01.08.2017 06:10 16,2 C 15,6 C 14,4 C 91 % 0 lf 1011,6 hPa 0,0 l/m 0 min 0 min 12 W/m 0,0 km/h (0 Bft) 94,85 %
01.08.2017 06:12 16,2 C 15,6 C 13,9 C 91 % 0 lf 1011,6 hPa 0,0 l/m 0 min 0 min 13 W/m 0,0 km/h (0 Bft) 95,74 %
01.08.2017 06:14 16,2 C 15,0 C 13,9 C 91 % 0 lf 1011,7 hPa 0,0 l/m 0 min 0 min 15 W/m 0,0 km/h (0 Bft) 93,62 %
01.08.2017 06:16 16,2 C 15,0 C 13,9 C 91 % 0 lf 1011,8 hPa 0,0 l/m 0 min 0 min 16 W/m 0,0 km/h (0 Bft) 95,74 %
01.08.2017 06:18 16,2 C 15,0 C 13,9 C 91 % 0 lf 1011,8 hPa 0,0 l/m 0 min 0 min 19 W/m 0,0 km/h (0 Bft) 97,83 %
01.08.2017 06:20 16,2 C 15,0 C 13,9 C 91 % 1 lf 1011,7 hPa 0,0 l/m 0 min 0 min 19 W/m 0,0 km/h (0 Bft) 93,62 %
01.08.2017 06:22 16,2 C 15,0 C 13,9 C 91 % 1 lf 1011,7 hPa 0,0 l/m 2 min 0 min 21 W/m 0,0 km/h (0 Bft) 93,62 %
01.08.2017 06:24 16,2 C 15,0 C 13,9 C 91 % 1 lf 1011,7 hPa 0,0 l/m 2 min 0 min 23 W/m 0,0 km/h (0 Bft) 94,29 %
01.08.2017 06:26 16,2 C 15,0 C 13,9 C 91 % 1 lf 1011,8 hPa 0,0 l/m 2 min 0 min 25 W/m 0,0 km/h (0 Bft) 94,92 %
01.08.2017 06:28 16,1 C 15,0 C 13,9 C 91 % 1 lf 1011,8 hPa 0,0 l/m 2 min 0 min 27 W/m 0,0 km/h (0 Bft) 93,62 %
01.08.2017 06:30 16,1 C 15,0 C 13,9 C 91 % 1 lf 1011,9 hPa 0,0 l/m 0 min 0 min 28 W/m 0,0 km/h (0 Bft) 94,29 %
01.08.2017 06:32 16,1 C 15,0 C 13,9 C 91 % 0 lf 1011,8 hPa 0,0 l/m 0 min 0 min 30 W/m 0,0 km/h (0 Bft) 96,49 %
01.08.2017 06:34 16,1 C 15,0 C 13,9 C 91 % 0 lf 1011,9 hPa 0,0 l/m 0 min 0 min 30 W/m 0,0 km/h (0 Bft) 97,87 %
01.08.2017 06:36 16,1 C 15,0 C 14,4 C 91 % 0 lf 1011,9 hPa 0,0 l/m 0 min 0 min 32 W/m 0,0 km/h (0 Bft) 97,87 %
01.08.2017 06:38 16,1 C 15,6 C 14,4 C 91 % 0 lf 1011,8 hPa 0,0 l/m 0 min 0 min 32 W/m 0,0 km/h (0 Bft) 95,74 %
01.08.2017 06:40 16,1 C 15,6 C 14,4 C 91 % 0 lf 1011,9 hPa 0,0 l/m 0 min 0 min 34 W/m 0,0 km/h (0 Bft) 93,62 %
01.08.2017 06:42 16,1 C 15,6 C 14,4 C 91 % 0 lf 1011,9 hPa 0,0 l/m 0 min 0 min 38 W/m 0,0 km/h (0 Bft) 93,48 %
01.08.2017 06:44 16,1 C 15,6 C 14,4 C 91 % 0 lf 1012,0 hPa 0,0 l/m 0 min 0 min 42 W/m 0,0 km/h (0 Bft) 93,62 %
01.08.2017 06:46 16,1 C 15,6 C 15,0 C 91 % 0 lf 1012,0 hPa 0,0 l/m 0 min 0 min 45 W/m 0,0 km/h (0 Bft) 95,74 %
01.08.2017 06:48 16,0 C 16,1 C 15,0 C 91 % 0 lf 1012,0 hPa 0,0 l/m 0 min 0 min 43 W/m 0,0 km/h (0 Bft) 95,74 %
01.08.2017 06:50 16,0 C 16,1 C 15,0 C 91 % 0 lf 1012,0 hPa 0,0 l/m 0 min 0 min 44 W/m 0,0 km/h (0 Bft) 95,74 %
01.08.2017 06:52 16,0 C 16,1 C 15,0 C 91 % 0 lf 1012,0 hPa 0,0 l/m 0 min 0 min 44 W/m 0,0 km/h (0 Bft) 93,62 %
01.08.2017 06:54 16,0 C 16,1 C 15,0 C 91 % 0 lf 1012,2 hPa 0,0 l/m 0 min 0 min 45 W/m 0,0 km/h (0 Bft) 93,62 %
01.08.2017 06:56 16,0 C 16,1 C 15,0 C 91 % 0 lf 1012,2 hPa 0,0 l/m 0 min 0 min 46 W/m 0,0 km/h (0 Bft) 93,48 %
01.08.2017 06:58 16,0 C 16,1 C 15,6 C 91 % 0 lf 1012,3 hPa 0,0 l/m 0 min 0 min 46 W/m 0,0 km/h (0 Bft) 97,87 %
01.08.2017 07:00 16,1 C 16,7 C 15,6 C 91 % 0 lf 1012,3 hPa 0,0 l/m 0 min 0 min 46 W/m 0,0 km/h (0 Bft) 91,43 %
01.08.2017 07:02 16,1 C 16,7 C 15,6 C 91 % 0 lf 1012,2 hPa 0,0 l/m 0 min 0 min 35 W/m 0,0 km/h (0 Bft) 94,59 %
01.08.2017 07:04 16,1 C 16,7 C 15,6 C 91 % 0 lf 1012,3 hPa 0,0 l/m 0 min 0 min 37 W/m 2,1 km/h (1 Bft) 98,31 %
01.08.2017 07:06 16,1 C 16,7 C 15,6 C 92 % 0 lf 1012,4 hPa 0,0 l/m 0 min 0 min 41 W/m 2,1 km/h (1 Bft) 97,83 %
01.08.2017 07:08 16,1 C 16,7 C 15,6 C 92 % 0 lf 1012,4 hPa 0,0 l/m 0 min 0 min 44 W/m 2,1 km/h (1 Bft) 97,87 %
01.08.2017 07:10 16,1 C 16,7 C 15,6 C 92 % 0 lf 1012,3 hPa 0,0 l/m 0 min 0 min 48 W/m 0,0 km/h (0 Bft) 95,74 %
01.08.2017 07:12 16,1 C 16,7 C 15,6 C 92 % 0 lf 1012,3 hPa 0,0 l/m 0 min 0 min 58 W/m 0,0 km/h (0 Bft) 97,87 %
01.08.2017 07:14 16,1 C 16,7 C 15,6 C 92 % 0 lf 1012,2 hPa 0,0 l/m 0 min 0 min 63 W/m 2,1 km/h (1 Bft) 95,74 %
01.08.2017 07:16 16,2 C 16,7 C 15,6 C 92 % 0 lf 1012,2 hPa 0,0 l/m 0 min 0 min 75 W/m 0,0 km/h (0 Bft) 97,87 %
01.08.2017 07:18 16,2 C 17,2 C 16,1 C 92 % 0 lf 1012,3 hPa 0,0 l/m 0 min 0 min 77 W/m 0,0 km/h (0 Bft) 95,65 %
01.08.2017 07:20 16,2 C 17,2 C 16,1 C 92 % 0 lf 1012,3 hPa 0,0 l/m 0 min 0 min 77 W/m 2,1 km/h (1 Bft) 97,87 %
01.08.2017 07:22 16,3 C 17,2 C 16,1 C 92 % 0 lf 1012,2 hPa 0,0 l/m 0 min 0 min 89 W/m 2,1 km/h (1 Bft) 100,00 %
01.08.2017 07:24 16,3 C 17,2 C 16,1 C 92 % 0 lf 1012,2 hPa 0,0 l/m 2 min 0 min 98 W/m 2,1 km/h (1 Bft) 97,87 %
01.08.2017 07:26 16,3 C 17,2 C 16,1 C 92 % 0 lf 1012,2 hPa 0,0 l/m 2 min 0 min 141 W/m 4,2 km/h (1 Bft) 98,11 %
01.08.2017 07:28 16,3 C 17,8 C 16,1 C 92 % 0 lf 1012,2 hPa 0,0 l/m 2 min 0 min 158 W/m 4,2 km/h (1 Bft) 97,87 %
01.08.2017 07:30 16,3 C 17,8 C 16,1 C 92 % 0 lf 1012,2 hPa 0,0 l/m 2 min 0 min 168 W/m 4,2 km/h (1 Bft) 100,00 %
01.08.2017 07:32 16,3 C 17,8 C 16,7 C 92 % 0 lf 1012,2 hPa 0,0 l/m 2 min 0 min 181 W/m 6,3 km/h (2 Bft) 100,00 %
01.08.2017 07:34 16,4 C 18,3 C 16,7 C 92 % 0 lf 1012,3 hPa 0,0 l/m 2 min 0 min 211 W/m 4,2 km/h (1 Bft) 97,87 %
01.08.2017 07:36 16,4 C 18,3 C 16,7 C 92 % 0 lf 1012,3 hPa 0,0 l/m 2 min 0 min 239 W/m 8,4 km/h (2 Bft) 93,62 %
01.08.2017 07:38 16,4 C 18,3 C 17,2 C 92 % 0 lf 1012,3 hPa 0,0 l/m 2 min 0 min 223 W/m 6,3 km/h (2 Bft) 100,00 %
01.08.2017 07:40 16,4 C 18,9 C 17,2 C 92 % 0 lf 1012,2 hPa 0,0 l/m 2 min 0 min 236 W/m 8,4 km/h (2 Bft) 100,00 %
01.08.2017 07:42 16,5 C 18,9 C 17,2 C 92 % 0 lf 1012,2 hPa 0,0 l/m 2 min 0 min 203 W/m 6,3 km/h (2 Bft) 100,00 %
01.08.2017 07:44 16,5 C 18,9 C 17,2 C 92 % 0 lf 1012,2 hPa 0,0 l/m 2 min 0 min 223 W/m 6,3 km/h (2 Bft) 97,87 %
01.08.2017 07:46 16,6 C 18,9 C 17,2 C 92 % 0 lf 1012,2 hPa 0,0 l/m 2 min 0 min 155 W/m 6,3 km/h (2 Bft) 100,00 %
01.08.2017 07:48 16,6 C 18,9 C 17,2 C 92 % 0 lf 1012,3 hPa 0,0 l/m 2 min 0 min 157 W/m 4,2 km/h (1 Bft) 100,00 %
01.08.2017 07:50 16,7 C 19,4 C 17,8 C 92 % 0 lf 1012,3 hPa 0,0 l/m 2 min 0 min 163 W/m 4,2 km/h (1 Bft) 100,00 %
01.08.2017 07:52 16,7 C 19,4 C 17,8 C 92 % 0 lf 1012,3 hPa 0,0 l/m 2 min 0 min 168 W/m 6,3 km/h (2 Bft) 100,00 %
01.08.2017 07:54 16,8 C 19,4 C 17,8 C 92 % 0 lf 1012,3 hPa 0,0 l/m 2 min 0 min 181 W/m 4,2 km/h (1 Bft) 100,00 %
01.08.2017 07:56 16,8 C 19,4 C 17,8 C 91 % 0 lf 1012,4 hPa 0,0 l/m 2 min 0 min 182 W/m 4,2 km/h (1 Bft) 100,00 %
01.08.2017 07:58 16,8 C 19,4 C 17,8 C 91 % 0 lf 1012,4 hPa 0,0 l/m 2 min 0 min 160 W/m 4,2 km/h (1 Bft) 100,00 %
01.08.2017 08:00 16,9 C 20,0 C 18,3 C 91 % 0 lf 1012,5 hPa 0,0 l/m 2 min 0 min 173 W/m 4,2 km/h (1 Bft) 100,00 %
01.08.2017 08:02 16,9 C 20,0 C 18,3 C 91 % 0 lf 1012,6 hPa 0,0 l/m 2 min 0 min 158 W/m 2,1 km/h (1 Bft) 97,87 %
01.08.2017 08:04 16,9 C 19,4 C 18,3 C 91 % 0 lf 1012,6 hPa 0,0 l/m 2 min 0 min 148 W/m 4,2 km/h (1 Bft) 97,87 %
01.08.2017 08:06 17,0 C 19,4 C 18,3 C 90 % 0 lf 1012,7 hPa 0,0 l/m 2 min 0 min 151 W/m 4,2 km/h (1 Bft) 100,00 %
01.08.2017 08:08 17,1 C 20,0 C 18,3 C 90 % 0 lf 1012,6 hPa 0,0 l/m 2 min 0 min 155 W/m 4,2 km/h (1 Bft) 100,00 %
01.08.2017 08:10 17,1 C 20,0 C 18,3 C 90 % 0 lf 1012,6 hPa 0,0 l/m 2 min 0 min 162 W/m 2,1 km/h (1 Bft) 100,00 %
01.08.2017 08:12 17,2 C 20,0 C 18,3 C 90 % 0 lf 1012,7 hPa 0,0 l/m 2 min 0 min 168 W/m 0,0 km/h (0 Bft) 100,00 %
01.08.2017 08:14 17,2 C 20,0 C 18,9 C 89 % 0 lf 1012,8 hPa 0,0 l/m 2 min 0 min 168 W/m 4,2 km/h (1 Bft) 100,00 %
01.08.2017 08:16 17,3 C 20,6 C 18,9 C 90 % 0 lf 1012,9 hPa 0,0 l/m 2 min 0 min 163 W/m 8,4 km/h (2 Bft) 95,65 %
01.08.2017 08:18 17,4 C 20,6 C 18,9 C 90 % 0 lf 1013,1 hPa 0,0 l/m 0 min 0 min 158 W/m 8,4 km/h (2 Bft) 97,87 %
01.08.2017 08:20 17,5 C 20,0 C 18,9 C 90 % 0 lf 1013,3 hPa 0,0 l/m 0 min 0 min 149 W/m 10,5 km/h (2 Bft) 97,87 %
01.08.2017 08:22 17,6 C 20,0 C 18,9 C 89 % 0 lf 1013,3 hPa 0,0 l/m 0 min 0 min 143 W/m 10,5 km/h (2 Bft) 97,87 %
01.08.2017 08:24 17,7 C 19,4 C 18,9 C 89 % 0 lf 1013,4 hPa 0,0 l/m 0 min 0 min 142 W/m 6,3 km/h (2 Bft) 97,87 %
01.08.2017 08:26 17,7 C 19,4 C 18,9 C 89 % 0 lf 1013,5 hPa 0,0 l/m 0 min 0 min 140 W/m 4,2 km/h (1 Bft) 97,87 %
01.08.2017 08:28 17,8 C 19,4 C 18,9 C 89 % 0 lf 1013,5 hPa 0,0 l/m 0 min 0 min 136 W/m 6,3 km/h (2 Bft) 93,48 %
01.08.2017 08:30 17,8 C 19,4 C 18,9 C 88 % 0 lf 1013,5 hPa 0,0 l/m 0 min 0 min 138 W/m 4,2 km/h (1 Bft) 93,62 %
01.08.2017 08:32 17,9 C 19,4 C 18,9 C 88 % 0 lf 1013,5 hPa 0,0 l/m 0 min 0 min 144 W/m 4,2 km/h (1 Bft) 95,74 %
01.08.2017 08:34 17,9 C 20,0 C 18,9 C 88 % 0 lf 1013,6 hPa 0,0 l/m 0 min 0 min 146 W/m 4,2 km/h (1 Bft) 95,74 %
01.08.2017 08:36 18,0 C 20,0 C 18,9 C 88 % 0 lf 1013,6 hPa 0,0 l/m 0 min 0 min 147 W/m 4,2 km/h (1 Bft) 93,62 %
01.08.2017 08:38 18,1 C 20,0 C 18,9 C 88 % 0 lf 1013,5 hPa 0,0 l/m 0 min 0 min 148 W/m 4,2 km/h (1 Bft) 95,74 %
01.08.2017 08:40 18,1 C 20,0 C 18,9 C 87 % 0 lf 1013,5 hPa 0,0 l/m 0 min 0 min 144 W/m 4,2 km/h (1 Bft) 95,65 %
01.08.2017 08:42 18,1 C 20,0 C 18,9 C 87 % 0 lf 1013,4 hPa 0,0 l/m 0 min 0 min 141 W/m 4,2 km/h (1 Bft) 95,74 %
01.08.2017 08:44 18,1 C 20,0 C 18,9 C 87 % 0 lf 1013,3 hPa 0,0 l/m 0 min 0 min 141 W/m 2,1 km/h (1 Bft) 93,62 %
01.08.2017 08:46 18,2 C 20,0 C 18,9 C 86 % 0 lf 1013,2 hPa 0,0 l/m 0 min 0 min 142 W/m 4,2 km/h (1 Bft) 91,49 %
01.08.2017 08:48 18,2 C 20,0 C 19,4 C 86 % 0 lf 1013,2 hPa 0,0 l/m 0 min 0 min 142 W/m 4,2 km/h (1 Bft) 91,49 %
01.08.2017 08:50 18,3 C 20,0 C 19,4 C 86 % 0 lf 1013,2 hPa 0,0 l/m 0 min 0 min 146 W/m 0,0 km/h (0 Bft) 91,49 %
01.08.2017 08:52 18,3 C 20,0 C 19,4 C 86 % 0 lf 1013,3 hPa 0,0 l/m 0 min 0 min 156 W/m 6,3 km/h (2 Bft) 93,48 %
01.08.2017 08:54 18,4 C 20,6 C 19,4 C 85 % 0 lf 1013,4 hPa 0,0 l/m 0 min 0 min 174 W/m 4,2 km/h (1 Bft) 93,62 %
01.08.2017 08:56 18,4 C 20,6 C 19,4 C 85 % 0 lf 1013,5 hPa 0,0 l/m 0 min 0 min 191 W/m 4,2 km/h (1 Bft) 89,36 %
01.08.2017 08:58 18,4 C 20,6 C 20,0 C 85 % 0 lf 1013,5 hPa 0,0 l/m 0 min 0 min 206 W/m 4,2 km/h (1 Bft) 91,49 %
01.08.2017 09:00 18,5 C 21,1 C 20,0 C 85 % 0 lf 1013,6 hPa 0,0 l/m 0 min 0 min 204 W/m 6,3 km/h (2 Bft) 91,49 %
01.08.2017 09:02 18,6 C 21,1 C 20,6 C 85 % 0 lf 1013,6 hPa 0,0 l/m 0 min 0 min 212 W/m 6,3 km/h (2 Bft) 89,36 %
01.08.2017 09:04 18,6 C 21,7 C 20,6 C 84 % 0 lf 1013,6 hPa 0,0 l/m 2 min 0 min 250 W/m 6,3 km/h (2 Bft) 91,30 %
01.08.2017 09:06 18,7 C 21,7 C 20,6 C 84 % 0 lf 1013,7 hPa 0,0 l/m 2 min 0 min 241 W/m 4,2 km/h (1 Bft) 93,62 %
01.08.2017 09:08 18,8 C 21,7 C 20,6 C 84 % 0 lf 1013,6 hPa 0,0 l/m 0 min 0 min 203 W/m 6,3 km/h (2 Bft) 91,49 %
01.08.2017 09:10 18,8 C 21,7 C 20,6 C 84 % 0 lf 1013,7 hPa 0,0 l/m 0 min 0 min 195 W/m 6,3 km/h (2 Bft) 93,62 %
01.08.2017 09:12 18,9 C 21,1 C 20,6 C 84 % 0 lf 1013,8 hPa 0,0 l/m 0 min 0 min 162 W/m 6,3 km/h (2 Bft) 89,36 %
01.08.2017 09:14 18,9 C 20,6 C 20,6 C 83 % 0 lf 1013,8 hPa 0,0 l/m 0 min 0 min 143 W/m 6,3 km/h (2 Bft) 93,62 %
01.08.2017 09:16 19,0 C 20,6 C 20,0 C 83 % 0 lf 1013,8 hPa 0,0 l/m 0 min 0 min 162 W/m 4,2 km/h (1 Bft) 95,65 %
01.08.2017 09:18 19,0 C 20,6 C 20,6 C 83 % 0 lf 1013,7 hPa 0,0 l/m 0 min 0 min 195 W/m 4,2 km/h (1 Bft) 91,49 %
01.08.2017 09:20 19,1 C 21,1 C 21,1 C 83 % 0 lf 1013,7 hPa 0,0 l/m 0 min 0 min 205 W/m 6,3 km/h (2 Bft) 93,62 %
01.08.2017 09:22 19,1 C 21,1 C 20,6 C 83 % 0 lf 1013,8 hPa 0,0 l/m 0 min 0 min 171 W/m 6,3 km/h (2 Bft) 97,87 %
01.08.2017 09:24 19,2 C 20,6 C 20,6 C 83 % 0 lf 1013,8 hPa 0,0 l/m 0 min 0 min 152 W/m 4,2 km/h (1 Bft) 95,74 %
01.08.2017 09:26 19,2 C 20,6 C 20,6 C 83 % 0 lf 1013,7 hPa 0,0 l/m 0 min 0 min 146 W/m 6,3 km/h (2 Bft) 95,65 %
01.08.2017 09:28 19,3 C 20,6 C 20,6 C 83 % 0 lf 1013,8 hPa 0,0 l/m 0 min 0 min 138 W/m 4,2 km/h (1 Bft) 97,87 %
01.08.2017 09:30 19,3 C 20,6 C 20,6 C 83 % 0 lf 1013,8 hPa 0,0 l/m 0 min 0 min 135 W/m 4,2 km/h (1 Bft) 97,87 %
01.08.2017 09:32 19,4 C 20,6 C 20,6 C 83 % 0 lf 1013,9 hPa 0,0 l/m 0 min 0 min 139 W/m 4,2 km/h (1 Bft) 97,87 %
01.08.2017 09:34 19,4 C 20,6 C 20,6 C 83 % 0 lf 1013,9 hPa 0,0 l/m 0 min 0 min 148 W/m 4,2 km/h (1 Bft) 93,62 %
01.08.2017 09:36 19,5 C 20,6 C 20,6 C 82 % 0 lf 1013,8 hPa 0,0 l/m 0 min 0 min 162 W/m 4,2 km/h (1 Bft) 95,74 %
01.08.2017 09:38 19,5 C 20,6 C 20,6 C 82 % 0 lf 1013,7 hPa 0,0 l/m 0 min 0 min 175 W/m 8,4 km/h (2 Bft) 95,65 %
01.08.2017 09:40 19,6 C 20,6 C 20,6 C 82 % 0 lf 1013,8 hPa 0,0 l/m 0 min 0 min 176 W/m 8,4 km/h (2 Bft) 97,87 %
01.08.2017 09:43 19,6 C 21,1 C 20,6 C 82 % 0 lf 1013,9 hPa 0,0 l/m 0 min 0 min 164 W/m 6,3 km/h (2 Bft) 97,18 %
01.08.2017 09:44 19,7 C 21,1 C 20,6 C 82 % 0 lf 1013,9 hPa 0,0 l/m 0 min 0 min 152 W/m 6,3 km/h (2 Bft) 100,00 %
01.08.2017 09:46 19,7 C 21,1 C 20,6 C 82 % 0 lf 1013,9 hPa 0,0 l/m 0 min 0 min 149 W/m 6,3 km/h (2 Bft) 95,74 %
01.08.2017 09:48 19,7 C 21,1 C 20,6 C 81 % 0 lf 1013,9 hPa 0,0 l/m 0 min 0 min 150 W/m 8,4 km/h (2 Bft) 97,87 %
01.08.2017 09:50 19,7 C 20,6 C 20,6 C 81 % 0 lf 1013,9 hPa 0,0 l/m 0 min 0 min 160 W/m 8,4 km/h (2 Bft) 95,65 %
01.08.2017 09:52 19,8 C 21,1 C 20,6 C 81 % 0 lf 1013,9 hPa 0,0 l/m 0 min 0 min 168 W/m 6,3 km/h (2 Bft) 95,74 %
01.08.2017 09:54 19,8 C 21,1 C 20,6 C 81 % 0 lf 1014,0 hPa 0,0 l/m 0 min 0 min 155 W/m 6,3 km/h (2 Bft) 97,87 %
01.08.2017 09:56 19,8 C 21,1 C 20,6 C 81 % 0 lf 1014,1 hPa 0,0 l/m 0 min 0 min 146 W/m 8,4 km/h (2 Bft) 97,87 %
01.08.2017 09:58 19,8 C 21,1 C 20,6 C 81 % 0 lf 1014,0 hPa 0,0 l/m 0 min 0 min 146 W/m 6,3 km/h (2 Bft) 97,87 %
01.08.2017 10:00 19,9 C 21,1 C 20,6 C 81 % 0 lf 1014,1 hPa 0,0 l/m 0 min 0 min 150 W/m 6,3 km/h (2 Bft) 97,87 %
01.08.2017 10:02 19,9 C 21,1 C 20,6 C 81 % 0 lf 1014,2 hPa 0,0 l/m 0 min 0 min 141 W/m 8,4 km/h (2 Bft) 97,83 %
01.08.2017 10:04 19,9 C 21,1 C 20,6 C 80 % 0 lf 1014,1 hPa 0,0 l/m 0 min 0 min 123 W/m 10,5 km/h (2 Bft) 100,00 %
01.08.2017 10:06 19,9 C 21,1 C 20,0 C 80 % 0 lf 1014,1 hPa 0,0 l/m 0 min 0 min 114 W/m 6,3 km/h (2 Bft) 97,87 %
01.08.2017 10:08 19,9 C 21,1 C 20,0 C 81 % 1 lf 1014,1 hPa 0,0 l/m 0 min 0 min 118 W/m 10,5 km/h (2 Bft) 97,87 %
01.08.2017 10:10 20,0 C 21,1 C 20,0 C 81 % 0 lf 1014,1 hPa 0,0 l/m 0 min 0 min 121 W/m 12,6 km/h (3 Bft) 95,74 %
01.08.2017 10:12 20,0 C 20,6 C 20,0 C 81 % 0 lf 1014,1 hPa 0,0 l/m 0 min 0 min 126 W/m 10,5 km/h (2 Bft) 100,00 %
01.08.2017 10:14 20,0 C 20,6 C 20,0 C 80 % 0 lf 1014,1 hPa 0,0 l/m 0 min 0 min 130 W/m 8,4 km/h (2 Bft) 100,00 %
01.08.2017 10:16 20,0 C 20,0 C 20,0 C 81 % 0 lf 1014,1 hPa 0,0 l/m 0 min 0 min 136 W/m 8,4 km/h (2 Bft) 100,00 %
01.08.2017 10:18 20,0 C 20,0 C 20,0 C 81 % 0 lf 1014,0 hPa 0,0 l/m 0 min 0 min 138 W/m 6,3 km/h (2 Bft) 97,87 %
01.08.2017 10:20 20,0 C 20,6 C 20,0 C 81 % 0 lf 1014,0 hPa 0,0 l/m 0 min 2 min 124 W/m 6,3 km/h (2 Bft) 100,00 %
01.08.2017 10:22 20,0 C 20,6 C 20,0 C 81 % 0 lf 1014,0 hPa 0,0 l/m 0 min 0 min 122 W/m 6,3 km/h (2 Bft) 100,00 %
01.08.2017 10:24 20,1 C 20,6 C 20,0 C 82 % 0 lf 1013,9 hPa 0,0 l/m 0 min 0 min 130 W/m 6,3 km/h (2 Bft) 100,00 %
01.08.2017 10:26 20,1 C 20,6 C 20,0 C 82 % 0 lf 1013,9 hPa 0,0 l/m 0 min 0 min 123 W/m 8,4 km/h (2 Bft) 100,00 %
01.08.2017 10:28 20,1 C 20,6 C 20,0 C 82 % 0 lf 1013,9 hPa 0,0 l/m 0 min 0 min 110 W/m 10,5 km/h (2 Bft) 100,00 %
01.08.2017 10:30 20,0 C 20,0 C 20,0 C 81 % 0 lf 1013,9 hPa 0,0 l/m 0 min 0 min 116 W/m 10,5 km/h (2 Bft) 100,00 %
01.08.2017 10:32 20,0 C 20,0 C 20,0 C 81 % 0 lf 1013,7 hPa 0,0 l/m 0 min 0 min 134 W/m 6,3 km/h (2 Bft) 100,00 %
01.08.2017 10:34 20,0 C 20,0 C 20,0 C 81 % 0 lf 1013,5 hPa 0,0 l/m 0 min 0 min 150 W/m 4,2 km/h (1 Bft) 100,00 %
01.08.2017 10:36 19,9 C 20,0 C 20,0 C 81 % 0 lf 1013,5 hPa 0,0 l/m 0 min 0 min 154 W/m 6,3 km/h (2 Bft) 100,00 %
01.08.2017 10:38 19,9 C 20,0 C 20,0 C 81 % 0 lf 1013,5 hPa 0,0 l/m 0 min 0 min 157 W/m 8,4 km/h (2 Bft) 100,00 %
01.08.2017 10:40 19,9 C 20,0 C 20,0 C 81 % 0 lf 1013,6 hPa 0,0 l/m 0 min 0 min 165 W/m 6,3 km/h (2 Bft) 100,00 %
01.08.2017 10:42 19,9 C 20,6 C 20,6 C 82 % 0 lf 1013,6 hPa 0,0 l/m 0 min 0 min 172 W/m 8,4 km/h (2 Bft) 97,87 %
01.08.2017 10:44 19,9 C 20,0 C 20,6 C 82 % 0 lf 1013,7 hPa 0,0 l/m 0 min 0 min 153 W/m 8,4 km/h (2 Bft) 97,87 %
01.08.2017 10:46 19,9 C 20,6 C 20,0 C 82 % 0 lf 1013,7 hPa 0,0 l/m 0 min 0 min 135 W/m 6,3 km/h (2 Bft) 97,87 %
01.08.2017 10:48 19,9 C 20,6 C 20,0 C 82 % 0 lf 1013,6 hPa 0,0 l/m 0 min 0 min 130 W/m 8,4 km/h (2 Bft) 97,87 %
01.08.2017 10:50 19,9 C 20,0 C 20,0 C 82 % 0 lf 1013,5 hPa 0,0 l/m 0 min 0 min 121 W/m 8,4 km/h (2 Bft) 100,00 %
01.08.2017 10:52 19,9 C 20,0 C 20,0 C 82 % 0 lf 1013,5 hPa 0,0 l/m 0 min 0 min 114 W/m 8,4 km/h (2 Bft) 97,87 %
01.08.2017 10:54 19,9 C 20,0 C 20,0 C 82 % 0 lf 1013,5 hPa 0,0 l/m 0 min 0 min 113 W/m 4,2 km/h (1 Bft) 97,87 %
01.08.2017 10:56 19,9 C 20,0 C 20,0 C 82 % 0 lf 1013,4 hPa 0,0 l/m 0 min 0 min 117 W/m 4,2 km/h (1 Bft) 97,87 %
01.08.2017 10:58 19,9 C 20,0 C 20,0 C 82 % 0 lf 1013,4 hPa 0,0 l/m 0 min 0 min 126 W/m 4,2 km/h (1 Bft) 97,87 %
01.08.2017 11:00 19,9 C 20,6 C 20,0 C 82 % 0 lf 1013,2 hPa 0,0 l/m 0 min 0 min 137 W/m 4,2 km/h (1 Bft) 93,48 %
01.08.2017 11:02 19,9 C 20,6 C 20,0 C 82 % 0 lf 1013,2 hPa 0,0 l/m 0 min 0 min 146 W/m 2,1 km/h (1 Bft) 97,87 %
01.08.2017 11:04 19,9 C 21,1 C 20,0 C 82 % 0 lf 1013,1 hPa 0,0 l/m 0 min 0 min 168 W/m 4,2 km/h (1 Bft) 97,87 %
01.08.2017 11:06 19,9 C 21,1 C 20,6 C 82 % 0 lf 1013,0 hPa 0,0 l/m 0 min 0 min 186 W/m 0,0 km/h (0 Bft) 97,87 %
01.08.2017 11:08 19,9 C 21,7 C 20,6 C 82 % 0 lf 1012,9 hPa 0,0 l/m 0 min 0 min 199 W/m 0,0 km/h (0 Bft) 95,74 %
01.08.2017 11:10 19,9 C 21,7 C 21,1 C 82 % 0 lf 1013,1 hPa 0,0 l/m 0 min 0 min 181 W/m 2,1 km/h (1 Bft) 95,74 %
01.08.2017 11:12 19,9 C 21,7 C 21,1 C 82 % 0 lf 1013,1 hPa 0,0 l/m 0 min 0 min 155 W/m 2,1 km/h (1 Bft) 95,65 %
01.08.2017 11:14 19,9 C 21,1 C 21,1 C 82 % 0 lf 1013,2 hPa 0,0 l/m 0 min 0 min 156 W/m 2,1 km/h (1 Bft) 95,74 %
01.08.2017 11:16 20,0 C 21,1 C 21,1 C 82 % 0 lf 1013,2 hPa 0,0 l/m 0 min 0 min 154 W/m 4,2 km/h (1 Bft) 93,62 %
01.08.2017 11:18 20,0 C 21,1 C 21,1 C 82 % 0 lf 1013,2 hPa 0,0 l/m 0 min 0 min 159 W/m 6,3 km/h (2 Bft) 95,74 %
01.08.2017 11:20 20,1 C 21,1 C 21,1 C 82 % 0 lf 1013,4 hPa 0,0 l/m 0 min 0 min 172 W/m 4,2 km/h (1 Bft) 93,62 %
01.08.2017 11:22 20,1 C 21,7 C 21,1 C 83 % 0 lf 1013,5 hPa 0,0 l/m 0 min 0 min 188 W/m 4,2 km/h (1 Bft) 93,62 %
01.08.2017 11:24 20,1 C 22,2 C 21,7 C 82 % 0 lf 1013,4 hPa 0,0 l/m 0 min 0 min 235 W/m 4,2 km/h (1 Bft) 95,65 %
01.08.2017 11:26 20,1 C 22,8 C 21,7 C 82 % 0 lf 1013,4 hPa 0,0 l/m 0 min 0 min 320 W/m 4,2 km/h (1 Bft) 95,74 %
01.08.2017 11:28 20,2 C 23,3 C 22,2 C 82 % 0 lf 1013,1 hPa 0,0 l/m 2 min 0 min 363 W/m 4,2 km/h (1 Bft) 93,62 %
01.08.2017 11:30 20,2 C 24,4 C 22,8 C 82 % 0 lf 1013,1 hPa 0,0 l/m 2 min 0 min 396 W/m 4,2 km/h (1 Bft) 97,87 %
01.08.2017 11:32 20,3 C 24,4 C 23,3 C 82 % 0 lf 1013,2 hPa 0,0 l/m 2 min 0 min 395 W/m 4,2 km/h (1 Bft) 93,62 %
01.08.2017 11:34 20,3 C 24,4 C 23,9 C 82 % 0 lf 1013,3 hPa 0,0 l/m 2 min 0 min 366 W/m 4,2 km/h (1 Bft) 95,74 %
01.08.2017 11:36 20,4 C 25,6 C 23,9 C 82 % 0 lf 1013,4 hPa 0,0 l/m 0 min 0 min 345 W/m 4,2 km/h (1 Bft) 93,48 %
01.08.2017 11:38 20,4 C 25,6 C 23,3 C 82 % 0 lf 1013,5 hPa 0,0 l/m 0 min 0 min 284 W/m 6,3 km/h (2 Bft) 93,62 %
01.08.2017 11:40 20,5 C 25,0 C 22,8 C 81 % 0 lf 1013,5 hPa 0,0 l/m 0 min 0 min 258 W/m 2,1 km/h (1 Bft) 95,74 %
01.08.2017 11:42 20,5 C 24,4 C 22,8 C 80 % 0 lf 1013,5 hPa 0,0 l/m 0 min 0 min 255 W/m 4,2 km/h (1 Bft) 93,62 %
01.08.2017 11:44 20,6 C 24,4 C 22,8 C 80 % 0 lf 1013,7 hPa 0,0 l/m 2 min 0 min 783 W/m 8,4 km/h (2 Bft) 95,74 %
01.08.2017 11:46 20,7 C 23,3 C 22,8 C 80 % 0 lf 1013,7 hPa 0,0 l/m 2 min 0 min 758 W/m 6,3 km/h (2 Bft) 95,74 %
01.08.2017 11:48 20,7 C 24,4 C 23,3 C 80 % 0 lf 1013,7 hPa 0,0 l/m 0 min 0 min 348 W/m 12,6 km/h (3 Bft) 95,65 %
01.08.2017 11:50 20,8 C 23,9 C 23,9 C 80 % 0 lf 1013,8 hPa 0,0 l/m 2 min 0 min 377 W/m 12,6 km/h (3 Bft) 93,62 %
01.08.2017 11:52 20,9 C 23,9 C 23,3 C 80 % 0 lf 1013,8 hPa 0,0 l/m 0 min 0 min 264 W/m 14,6 km/h (3 Bft) 97,87 %
01.08.2017 11:54 20,9 C 23,9 C 23,3 C 79 % 0 lf 1013,9 hPa 0,0 l/m 0 min 0 min 252 W/m 10,5 km/h (2 Bft) 97,87 %
01.08.2017 11:56 21,0 C 23,9 C 23,3 C 78 % 0 lf 1013,9 hPa 0,0 l/m 0 min 0 min 310 W/m 6,3 km/h (2 Bft) 95,74 %
01.08.2017 11:58 21,0 C 23,9 C 23,9 C 79 % 0 lf 1013,9 hPa 0,0 l/m 0 min 0 min 317 W/m 6,3 km/h (2 Bft) 97,87 %
01.08.2017 12:00 21,1 C 23,9 C 23,3 C 77 % 0 lf 1013,9 hPa 0,0 l/m 0 min 0 min 287 W/m 6,3 km/h (2 Bft) 97,83 %
01.08.2017 12:02 21,1 C 23,3 C 23,3 C 77 % 0 lf 1013,9 hPa 0,0 l/m 0 min 0 min 288 W/m 6,3 km/h (2 Bft) 95,74 %
01.08.2017 12:04 21,2 C 23,9 C 23,3 C 78 % 0 lf 1014,0 hPa 0,0 l/m 0 min 0 min 270 W/m 8,4 km/h (2 Bft) 95,74 %
01.08.2017 12:06 21,2 C 23,9 C 22,8 C 77 % 0 lf 1014,0 hPa 0,0 l/m 0 min 0 min 247 W/m 6,3 km/h (2 Bft) 97,87 %
01.08.2017 12:10 21,3 C 25,0 C 24,4 C 78 % 0 lf 1013,9 hPa 0,0 l/m 0 min 0 min 324 W/m 4,2 km/h (1 Bft) 97,92 %
01.08.2017 12:12 21,3 C 26,1 C 25,6 C 77 % 0 lf 1013,8 hPa 0,0 l/m 2 min 0 min 527 W/m 4,2 km/h (1 Bft) 93,62 %
01.08.2017 12:14 21,4 C 26,1 C 26,1 C 77 % 0 lf 1013,8 hPa 0,0 l/m 2 min 0 min 711 W/m 8,4 km/h (2 Bft) 97,87 %
01.08.2017 12:16 21,4 C 26,1 C 25,6 C 77 % 0 lf 1013,7 hPa 0,0 l/m 2 min 0 min 465 W/m 10,5 km/h (2 Bft) 93,62 %
01.08.2017 12:18 21,6 C 26,7 C 26,1 C 78 % 0 lf 1013,8 hPa 0,0 l/m 2 min 0 min 480 W/m 6,3 km/h (2 Bft) 97,87 %
01.08.2017 12:20 21,7 C 25,6 C 26,1 C 77 % 0 lf 1014,0 hPa 0,0 l/m 2 min 0 min 415 W/m 8,4 km/h (2 Bft) 95,74 %
01.08.2017 12:22 21,7 C 25,6 C 26,1 C 77 % 0 lf 1014,0 hPa 0,0 l/m 2 min 0 min 418 W/m 4,2 km/h (1 Bft) 95,65 %
01.08.2017 12:24 21,8 C 26,7 C 26,1 C 77 % 0 lf 1014,2 hPa 0,0 l/m 0 min 0 min 385 W/m 6,3 km/h (2 Bft) 95,74 %
01.08.2017 12:26 22,0 C 26,7 C 26,1 C 78 % 0 lf 1014,2 hPa 0,0 l/m 0 min 0 min 337 W/m 6,3 km/h (2 Bft) 95,74 %
01.08.2017 12:28 22,1 C 25,6 C 25,6 C 76 % 0 lf 1014,3 hPa 0,0 l/m 0 min 0 min 313 W/m 8,4 km/h (2 Bft) 95,74 %
01.08.2017 12:30 22,2 C 25,6 C 25,6 C 76 % 0 lf 1014,4 hPa 0,0 l/m 0 min 0 min 293 W/m 8,4 km/h (2 Bft) 95,74 %
01.08.2017 12:32 22,2 C 24,4 C 25,0 C 75 % 0 lf 1014,4 hPa 0,0 l/m 0 min 0 min 264 W/m 8,4 km/h (2 Bft) 97,87 %
01.08.2017 12:34 22,3 C 24,4 C 24,4 C 74 % 0 lf 1014,5 hPa 0,0 l/m 0 min 0 min 248 W/m 6,3 km/h (2 Bft) 95,65 %
01.08.2017 12:36 22,3 C 23,3 C 24,4 C 73 % 0 lf 1014,6 hPa 0,0 l/m 0 min 0 min 224 W/m 10,5 km/h (2 Bft) 97,87 %
01.08.2017 12:38 22,3 C 23,3 C 23,9 C 72 % 0 lf 1014,7 hPa 0,0 l/m 0 min 0 min 220 W/m 8,4 km/h (2 Bft) 93,62 %
01.08.2017 12:40 22,3 C 23,3 C 23,9 C 73 % 0 lf 1014,7 hPa 0,0 l/m 0 min 0 min 209 W/m 8,4 km/h (2 Bft) 93,62 %
01.08.2017 12:42 22,3 C 23,3 C 23,9 C 73 % 0 lf 1014,8 hPa 0,0 l/m 0 min 0 min 223 W/m 8,4 km/h (2 Bft) 97,87 %
01.08.2017 12:44 22,3 C 23,3 C 23,3 C 72 % 0 lf 1014,8 hPa 0,0 l/m 0 min 0 min 225 W/m 6,3 km/h (2 Bft) 97,87 %
01.08.2017 12:46 22,4 C 23,9 C 23,9 C 73 % 0 lf 1014,8 hPa 0,0 l/m 0 min 0 min 226 W/m 6,3 km/h (2 Bft) 97,83 %
01.08.2017 12:48 22,4 C 23,9 C 23,9 C 73 % 0 lf 1014,9 hPa 0,0 l/m 0 min 0 min 223 W/m 4,2 km/h (1 Bft) 93,62 %
01.08.2017 12:50 22,4 C 23,9 C 23,9 C 73 % 0 lf 1014,8 hPa 0,0 l/m 0 min 0 min 220 W/m 6,3 km/h (2 Bft) 97,87 %
01.08.2017 12:52 22,4 C 23,9 C 23,9 C 73 % 0 lf 1014,8 hPa 0,0 l/m 0 min 0 min 242 W/m 4,2 km/h (1 Bft) 97,87 %
01.08.2017 12:54 22,4 C 23,3 C 23,9 C 73 % 0 lf 1014,8 hPa 0,0 l/m 0 min 0 min 261 W/m 6,3 km/h (2 Bft) 95,74 %
01.08.2017 12:56 22,4 C 23,9 C 23,9 C 73 % 0 lf 1014,8 hPa 0,0 l/m 0 min 0 min 273 W/m 6,3 km/h (2 Bft) 97,83 %
01.08.2017 12:58 22,4 C 24,4 C 23,9 C 73 % 0 lf 1014,8 hPa 0,0 l/m 0 min 0 min 304 W/m 4,2 km/h (1 Bft) 95,74 %
01.08.2017 13:00 22,5 C 25,0 C 24,4 C 73 % 0 lf 1014,8 hPa 0,0 l/m 0 min 0 min 330 W/m 10,5 km/h (2 Bft) 95,74 %
01.08.2017 13:02 22,5 C 25,0 C 24,4 C 73 % 0 lf 1014,8 hPa 0,0 l/m 0 min 0 min 376 W/m 8,4 km/h (2 Bft) 95,74 %
01.08.2017 13:04 22,6 C 25,6 C 25,6 C 74 % 0 lf 1014,7 hPa 0,0 l/m 2 min 0 min 516 W/m 6,3 km/h (2 Bft) 95,74 %
01.08.2017 13:06 22,6 C 26,7 C 26,1 C 74 % 0 lf 1014,7 hPa 0,0 l/m 2 min 0 min 482 W/m 6,3 km/h (2 Bft) 93,62 %
01.08.2017 13:08 22,7 C 27,8 C 26,1 C 75 % 0 lf 1014,7 hPa 0,0 l/m 2 min 0 min 440 W/m 10,5 km/h (2 Bft) 95,65 %
01.08.2017 13:10 22,7 C 27,2 C 26,1 C 74 % 0 lf 1014,6 hPa 0,0 l/m 2 min 0 min 448 W/m 10,5 km/h (2 Bft) 95,74 %
01.08.2017 13:12 22,7 C 26,7 C 26,1 C 74 % 0 lf 1014,7 hPa 0,0 l/m 0 min 0 min 393 W/m 10,5 km/h (2 Bft) 97,87 %
01.08.2017 13:14 22,8 C 25,6 C 25,6 C 73 % 0 lf 1014,6 hPa 0,0 l/m 0 min 0 min 392 W/m 6,3 km/h (2 Bft) 95,74 %
01.08.2017 13:16 22,8 C 24,4 C 25,6 C 72 % 0 lf 1014,7 hPa 0,0 l/m 0 min 0 min 397 W/m 8,4 km/h (2 Bft) 93,62 %
01.08.2017 13:18 22,8 C 23,9 C 24,4 C 72 % 0 lf 1014,7 hPa 0,0 l/m 0 min 0 min 249 W/m 12,6 km/h (3 Bft) 95,74 %
01.08.2017 13:20 22,7 C 23,3 C 24,4 C 72 % 0 lf 1014,7 hPa 0,0 l/m 0 min 0 min 216 W/m 8,4 km/h (2 Bft) 97,83 %
01.08.2017 13:22 22,7 C 23,3 C 23,9 C 72 % 0 lf 1014,7 hPa 0,0 l/m 0 min 0 min 207 W/m 12,6 km/h (3 Bft) 97,87 %
01.08.2017 13:24 22,7 C 23,3 C 23,3 C 72 % 0 lf 1014,7 hPa 0,0 l/m 0 min 0 min 196 W/m 6,3 km/h (2 Bft) 97,87 %
01.08.2017 13:26 22,7 C 23,3 C 23,3 C 72 % 0 lf 1014,7 hPa 0,0 l/m 0 min 0 min 187 W/m 8,4 km/h (2 Bft) 95,74 %
01.08.2017 13:28 22,7 C 23,3 C 23,3 C 72 % 0 lf 1014,7 hPa 0,0 l/m 0 min 0 min 183 W/m 10,5 km/h (2 Bft) 97,87 %
01.08.2017 13:30 22,7 C 23,3 C 23,3 C 72 % 0 lf 1014,6 hPa 0,0 l/m 0 min 0 min 218 W/m 8,4 km/h (2 Bft) 95,74 %
01.08.2017 13:32 22,6 C 23,3 C 23,9 C 71 % 0 lf 1014,6 hPa 0,0 l/m 0 min 0 min 264 W/m 6,3 km/h (2 Bft) 97,83 %
01.08.2017 13:34 22,6 C 23,9 C 23,9 C 71 % 0 lf 1014,7 hPa 0,0 l/m 0 min 0 min 251 W/m 2,1 km/h (1 Bft) 97,87 %
01.08.2017 13:36 22,6 C 23,9 C 23,9 C 70 % 0 lf 1014,6 hPa 0,0 l/m 0 min 0 min 233 W/m 6,3 km/h (2 Bft) 100,00 %
01.08.2017 13:38 22,7 C 23,9 C 23,9 C 71 % 0 lf 1014,6 hPa 0,0 l/m 0 min 0 min 265 W/m 8,4 km/h (2 Bft) 100,00 %
01.08.2017 13:40 22,7 C 23,9 C 24,4 C 71 % 0 lf 1014,5 hPa 0,0 l/m 0 min 0 min 287 W/m 10,5 km/h (2 Bft) 97,87 %
01.08.2017 13:42 22,7 C 24,4 C 24,4 C 71 % 0 lf 1014,4 hPa 0,0 l/m 0 min 0 min 293 W/m 8,4 km/h (2 Bft) 97,87 %
01.08.2017 13:44 22,7 C 25,0 C 25,0 C 72 % 0 lf 1014,4 hPa 0,0 l/m 0 min 0 min 319 W/m 6,3 km/h (2 Bft) 97,83 %
01.08.2017 13:46 22,7 C 25,0 C 25,0 C 71 % 0 lf 1014,3 hPa 0,0 l/m 0 min 0 min 353 W/m 8,4 km/h (2 Bft) 95,74 %
01.08.2017 13:48 22,8 C 25,6 C 25,0 C 71 % 0 lf 1014,4 hPa 0,0 l/m 0 min 0 min 338 W/m 10,5 km/h (2 Bft) 97,87 %
01.08.2017 13:50 22,8 C 25,6 C 25,0 C 70 % 0 lf 1014,3 hPa 0,0 l/m 0 min 0 min 292 W/m 6,3 km/h (2 Bft) 97,87 %
01.08.2017 13:52 22,8 C 25,6 C 24,4 C 70 % 0 lf 1014,3 hPa 0,0 l/m 0 min 0 min 269 W/m 10,5 km/h (2 Bft) 97,87 %
01.08.2017 13:54 22,8 C 25,0 C 23,9 C 69 % 0 lf 1014,2 hPa 0,0 l/m 0 min 0 min 254 W/m 8,4 km/h (2 Bft) 97,87 %
01.08.2017 13:56 22,8 C 25,0 C 23,9 C 70 % 0 lf 1014,2 hPa 0,0 l/m 0 min 0 min 198 W/m 6,3 km/h (2 Bft) 95,65 %
01.08.2017 13:58 22,8 C 24,4 C 23,3 C 70 % 0 lf 1014,2 hPa 0,0 l/m 0 min 0 min 146 W/m 8,4 km/h (2 Bft) 95,74 %
01.08.2017 14:00 22,7 C 23,9 C 23,3 C 70 % 0 lf 1014,2 hPa 0,0 l/m 0 min 0 min 130 W/m 8,4 km/h (2 Bft) 97,87 %
01.08.2017 14:02 22,7 C 23,9 C 23,3 C 70 % 0 lf 1014,2 hPa 0,0 l/m 0 min 0 min 135 W/m 8,4 km/h (2 Bft) 95,74 %
01.08.2017 14:04 22,7 C 23,9 C 22,2 C 69 % 0 lf 1014,2 hPa 0,0 l/m 0 min 0 min 134 W/m 8,4 km/h (2 Bft) 97,87 %
01.08.2017 14:06 22,7 C 23,3 C 22,2 C 69 % 0 lf 1014,3 hPa 0,0 l/m 0 min 0 min 127 W/m 6,3 km/h (2 Bft) 93,62 %
01.08.2017 14:08 22,7 C 23,3 C 22,8 C 70 % 0 lf 1014,3 hPa 0,0 l/m 0 min 0 min 125 W/m 6,3 km/h (2 Bft) 97,83 %
01.08.2017 14:10 22,7 C 23,3 C 22,2 C 70 % 0 lf 1014,3 hPa 0,0 l/m 0 min 0 min 121 W/m 6,3 km/h (2 Bft) 95,74 %
01.08.2017 14:12 22,7 C 23,3 C 22,2 C 70 % 0 lf 1014,3 hPa 0,0 l/m 0 min 0 min 108 W/m 4,2 km/h (1 Bft) 97,87 %
01.08.2017 14:14 22,6 C 23,3 C 22,2 C 70 % 0 lf 1014,4 hPa 0,0 l/m 0 min 0 min 86 W/m 4,2 km/h (1 Bft) 95,74 %
01.08.2017 14:16 22,6 C 22,8 C 22,2 C 71 % 0 lf 1014,3 hPa 0,0 l/m 0 min 0 min 75 W/m 6,3 km/h (2 Bft) 97,87 %
01.08.2017 14:18 22,6 C 22,8 C 21,7 C 71 % 0 lf 1014,3 hPa 0,0 l/m 0 min 0 min 78 W/m 4,2 km/h (1 Bft) 97,83 %
01.08.2017 14:20 22,6 C 22,8 C 21,7 C 70 % 0 lf 1014,2 hPa 0,0 l/m 0 min 0 min 93 W/m 8,4 km/h (2 Bft) 97,87 %
01.08.2017 14:22 22,6 C 22,8 C 21,7 C 70 % 0 lf 1014,2 hPa 0,0 l/m 0 min 0 min 117 W/m 6,3 km/h (2 Bft) 97,87 %
01.08.2017 14:24 22,5 C 23,3 C 21,7 C 69 % 0 lf 1014,1 hPa 0,0 l/m 0 min 0 min 149 W/m 6,3 km/h (2 Bft) 100,00 %
01.08.2017 14:26 22,4 C 23,3 C 21,7 C 69 % 0 lf 1014,2 hPa 0,0 l/m 0 min 0 min 186 W/m 8,4 km/h (2 Bft) 97,87 %
01.08.2017 14:28 22,4 C 23,9 C 22,2 C 69 % 1 lf 1014,1 hPa 0,0 l/m 0 min 0 min 231 W/m 6,3 km/h (2 Bft) 97,87 %
01.08.2017 14:30 22,4 C 24,4 C 22,8 C 69 % 1 lf 1014,0 hPa 0,0 l/m 0 min 0 min 293 W/m 8,4 km/h (2 Bft) 100,00 %
01.08.2017 14:32 22,3 C 25,0 C 23,3 C 69 % 1 lf 1014,0 hPa 0,0 l/m 0 min 0 min 319 W/m 8,4 km/h (2 Bft) 100,00 %
01.08.2017 14:34 22,3 C 24,4 C 23,3 C 69 % 0 lf 1014,1 hPa 0,0 l/m 0 min 0 min 302 W/m 10,5 km/h (2 Bft) 97,87 %
01.08.2017 14:36 22,3 C 25,0 C 23,3 C 69 % 0 lf 1014,2 hPa 0,0 l/m 0 min 0 min 271 W/m 12,6 km/h (3 Bft) 100,00 %
01.08.2017 14:38 22,3 C 24,4 C 23,9 C 70 % 0 lf 1014,2 hPa 0,0 l/m 0 min 0 min 246 W/m 8,4 km/h (2 Bft) 100,00 %
01.08.2017 14:40 22,4 C 24,4 C 23,9 C 71 % 0 lf 1014,2 hPa 0,0 l/m 0 min 0 min 229 W/m 10,5 km/h (2 Bft) 93,62 %
01.08.2017 14:42 22,4 C 24,4 C 23,9 C 71 % 0 lf 1014,3 hPa 0,0 l/m 0 min 0 min 232 W/m 10,5 km/h (2 Bft) 97,83 %
01.08.2017 14:44 22,4 C 24,4 C 23,3 C 70 % 0 lf 1014,2 hPa 0,0 l/m 0 min 0 min 245 W/m 12,6 km/h (3 Bft) 100,00 %
01.08.2017 14:46 22,4 C 25,0 C 23,3 C 69 % 0 lf 1014,2 hPa 0,0 l/m 0 min 0 min 274 W/m 10,5 km/h (2 Bft) 100,00 %
01.08.2017 14:48 22,3 C 24,4 C 23,3 C 69 % 0 lf 1014,3 hPa 0,0 l/m 0 min 0 min 247 W/m 10,5 km/h (2 Bft) 100,00 %
01.08.2017 14:50 22,3 C 24,4 C 23,3 C 69 % 0 lf 1014,4 hPa 0,0 l/m 0 min 0 min 199 W/m 8,4 km/h (2 Bft) 97,87 %
01.08.2017 14:52 22,3 C 24,4 C 23,3 C 69 % 0 lf 1014,3 hPa 0,0 l/m 0 min 0 min 226 W/m 10,5 km/h (2 Bft) 93,62 %
01.08.2017 14:54 22,3 C 24,4 C 23,3 C 69 % 0 lf 1014,1 hPa 0,0 l/m 0 min 0 min 286 W/m 10,5 km/h (2 Bft) 97,83 %
01.08.2017 14:56 22,3 C 25,0 C 23,3 C 69 % 0 lf 1014,1 hPa 0,0 l/m 0 min 0 min 301 W/m 8,4 km/h (2 Bft) 95,83 %
01.08.2017 14:58 22,3 C 25,0 C 23,9 C 70 % 0 lf 1014,2 hPa 0,0 l/m 0 min 0 min 286 W/m 10,5 km/h (2 Bft) 96,72 %
01.08.2017 15:00 22,3 C 25,0 C 23,3 C 69 % 0 lf 1014,2 hPa 0,0 l/m 0 min 0 min 293 W/m 12,6 km/h (3 Bft) 95,74 %
01.08.2017 15:02 22,3 C 25,6 C 23,9 C 68 % 0 lf 1014,2 hPa 0,0 l/m 0 min 0 min 354 W/m 12,6 km/h (3 Bft) 93,62 %
01.08.2017 15:04 22,3 C 26,1 C 24,4 C 68 % 0 lf 1014,2 hPa 0,0 l/m 2 min 0 min 509 W/m 8,4 km/h (2 Bft) 95,74 %
01.08.2017 15:06 22,3 C 27,2 C 25,0 C 68 % 0 lf 1014,2 hPa 0,0 l/m 2 min 0 min 499 W/m 8,4 km/h (2 Bft) 97,87 %
01.08.2017 15:08 22,4 C 27,2 C 25,6 C 69 % 0 lf 1014,2 hPa 0,0 l/m 2 min 0 min 455 W/m 8,4 km/h (2 Bft) 95,65 %
01.08.2017 15:10 22,4 C 27,2 C 25,6 C 69 % 0 lf 1014,2 hPa 0,0 l/m 2 min 0 min 459 W/m 6,3 km/h (2 Bft) 95,74 %
01.08.2017 15:12 22,4 C 27,8 C 25,6 C 68 % 0 lf 1014,2 hPa 0,0 l/m 2 min 0 min 457 W/m 10,5 km/h (2 Bft) 95,74 %
01.08.2017 15:14 22,5 C 26,7 C 25,0 C 68 % 0 lf 1014,1 hPa 0,0 l/m 0 min 0 min 364 W/m 12,6 km/h (3 Bft) 93,62 %
01.08.2017 15:16 22,5 C 26,1 C 24,4 C 67 % 0 lf 1014,0 hPa 0,0 l/m 0 min 0 min 332 W/m 10,5 km/h (2 Bft) 91,49 %
01.08.2017 15:18 22,5 C 25,6 C 23,9 C 67 % 0 lf 1014,0 hPa 0,0 l/m 0 min 0 min 302 W/m 10,5 km/h (2 Bft) 93,48 %
01.08.2017 15:20 22,6 C 25,6 C 23,9 C 66 % 0 lf 1014,1 hPa 0,0 l/m 0 min 0 min 271 W/m 6,3 km/h (2 Bft) 95,74 %
01.08.2017 15:22 22,6 C 25,6 C 23,9 C 67 % 0 lf 1014,2 hPa 0,0 l/m 0 min 0 min 231 W/m 6,3 km/h (2 Bft) 93,62 %
01.08.2017 15:24 22,6 C 25,6 C 23,9 C 67 % 0 lf 1014,2 hPa 0,0 l/m 0 min 0 min 214 W/m 6,3 km/h (2 Bft) 95,74 %
01.08.2017 15:26 22,6 C 25,6 C 23,9 C 67 % 0 lf 1014,3 hPa 0,0 l/m 0 min 0 min 215 W/m 6,3 km/h (2 Bft) 93,62 %
01.08.2017 15:28 22,7 C 25,0 C 23,9 C 67 % 0 lf 1014,3 hPa 0,0 l/m 0 min 0 min 205 W/m 10,5 km/h (2 Bft) 93,62 %
01.08.2017 15:30 22,7 C 25,0 C 23,3 C 66 % 0 lf 1014,3 hPa 0,0 l/m 0 min 0 min 202 W/m 10,5 km/h (2 Bft) 95,65 %
01.08.2017 15:32 22,7 C 24,4 C 23,3 C 66 % 0 lf 1014,3 hPa 0,0 l/m 0 min 0 min 218 W/m 4,2 km/h (1 Bft) 91,49 %
01.08.2017 15:34 22,7 C 25,0 C 23,9 C 67 % 0 lf 1014,2 hPa 0,0 l/m 0 min 0 min 282 W/m 4,2 km/h (1 Bft) 95,74 %
01.08.2017 15:36 22,7 C 26,1 C 24,4 C 67 % 0 lf 1014,2 hPa 0,0 l/m 0 min 0 min 360 W/m 6,3 km/h (2 Bft) 91,49 %
01.08.2017 15:38 22,7 C 26,1 C 24,4 C 67 % 0 lf 1014,2 hPa 0,0 l/m 2 min 0 min 383 W/m 6,3 km/h (2 Bft) 91,49 %
01.08.2017 15:40 22,7 C 26,7 C 25,0 C 67 % 0 lf 1014,2 hPa 0,0 l/m 0 min 0 min 352 W/m 6,3 km/h (2 Bft) 93,62 %
01.08.2017 15:42 22,8 C 26,7 C 25,0 C 67 % 0 lf 1014,2 hPa 0,0 l/m 0 min 0 min 333 W/m 8,4 km/h (2 Bft) 93,48 %
01.08.2017 15:44 22,8 C 27,2 C 25,0 C 68 % 0 lf 1014,2 hPa 0,0 l/m 0 min 0 min 321 W/m 10,5 km/h (2 Bft) 95,74 %
01.08.2017 15:46 22,9 C 27,2 C 25,0 C 67 % 0 lf 1014,2 hPa 0,0 l/m 0 min 0 min 316 W/m 6,3 km/h (2 Bft) 97,87 %
01.08.2017 15:48 22,9 C 26,7 C 24,4 C 66 % 0 lf 1014,1 hPa 0,0 l/m 0 min 0 min 315 W/m 10,5 km/h (2 Bft) 95,74 %
01.08.2017 15:50 22,9 C 26,7 C 24,4 C 66 % 0 lf 1014,2 hPa 0,0 l/m 0 min 0 min 301 W/m 12,6 km/h (3 Bft) 97,87 %
01.08.2017 15:52 22,9 C 25,6 C 23,9 C 66 % 0 lf 1014,2 hPa 0,0 l/m 0 min 0 min 310 W/m 10,5 km/h (2 Bft) 97,87 %
01.08.2017 15:54 23,0 C 25,6 C 23,3 C 65 % 0 lf 1014,1 hPa 0,0 l/m 0 min 0 min 343 W/m 8,4 km/h (2 Bft) 95,65 %
01.08.2017 15:56 22,9 C 25,6 C 23,9 C 65 % 0 lf 1014,2 hPa 0,0 l/m 0 min 0 min 333 W/m 6,3 km/h (2 Bft) 97,87 %
01.08.2017 15:58 23,0 C 25,0 C 24,4 C 65 % 0 lf 1014,2 hPa 0,0 l/m 0 min 0 min 347 W/m 6,3 km/h (2 Bft) 95,74 %
01.08.2017 16:00 23,0 C 25,0 C 25,0 C 66 % 0 lf 1014,2 hPa 0,0 l/m 2 min 0 min 389 W/m 8,4 km/h (2 Bft) 95,74 %
01.08.2017 16:02 23,1 C 25,0 C 25,6 C 67 % 0 lf 1014,2 hPa 0,0 l/m 0 min 0 min 312 W/m 6,3 km/h (2 Bft) 93,62 %
01.08.2017 16:04 23,1 C 25,6 C 25,6 C 68 % 0 lf 1014,3 hPa 0,0 l/m 0 min 0 min 265 W/m 4,2 km/h (1 Bft) 97,87 %
01.08.2017 16:06 23,1 C 25,0 C 25,6 C 67 % 0 lf 1014,2 hPa 0,0 l/m 0 min 0 min 192 W/m 4,2 km/h (1 Bft) 97,83 %
01.08.2017 16:08 23,2 C 25,0 C 25,0 C 67 % 0 lf 1014,1 hPa 0,0 l/m 0 min 0 min 201 W/m 4,2 km/h (1 Bft) 97,87 %
01.08.2017 16:10 23,2 C 25,0 C 25,0 C 67 % 0 lf 1014,2 hPa 0,0 l/m 0 min 0 min 251 W/m 10,5 km/h (2 Bft) 97,87 %
01.08.2017 16:12 23,2 C 25,0 C 25,0 C 66 % 0 lf 1014,2 hPa 0,0 l/m 0 min 0 min 245 W/m 10,5 km/h (2 Bft) 97,87 %
01.08.2017 16:14 23,2 C 25,0 C 24,4 C 66 % 0 lf 1014,3 hPa 0,0 l/m 0 min 0 min 202 W/m 4,2 km/h (1 Bft) 97,87 %
01.08.2017 16:16 23,2 C 24,4 C 24,4 C 65 % 0 lf 1014,3 hPa 0,0 l/m 0 min 0 min 192 W/m 4,2 km/h (1 Bft) 95,74 %
01.08.2017 16:18 23,3 C 24,4 C 24,4 C 65 % 0 lf 1014,3 hPa 0,0 l/m 0 min 0 min 181 W/m 4,2 km/h (1 Bft) 93,48 %
01.08.2017 16:20 23,3 C 24,4 C 24,4 C 65 % 0 lf 1014,3 hPa 0,0 l/m 0 min 0 min 162 W/m 0,0 km/h (0 Bft) 93,62 %
01.08.2017 16:22 23,3 C 24,4 C 23,9 C 66 % 0 lf 1014,3 hPa 0,0 l/m 0 min 0 min 157 W/m 6,3 km/h (2 Bft) 95,74 %
01.08.2017 16:24 23,3 C 24,4 C 23,9 C 66 % 0 lf 1014,3 hPa 0,0 l/m 0 min 0 min 134 W/m 6,3 km/h (2 Bft) 95,74 %
01.08.2017 16:26 23,3 C 24,4 C 23,3 C 66 % 0 lf 1014,3 hPa 0,0 l/m 0 min 0 min 131 W/m 6,3 km/h (2 Bft) 95,74 %
01.08.2017 16:28 23,3 C 24,4 C 22,8 C 65 % 0 lf 1014,3 hPa 0,0 l/m 0 min 0 min 141 W/m 6,3 km/h (2 Bft) 93,62 %
01.08.2017 16:30 23,3 C 23,9 C 22,2 C 65 % 0 lf 1014,4 hPa 0,0 l/m 0 min 0 min 127 W/m 6,3 km/h (2 Bft) 93,48 %
01.08.2017 16:32 23,3 C 23,9 C 22,2 C 65 % 0 lf 1014,3 hPa 0,0 l/m 0 min 0 min 100 W/m 4,2 km/h (1 Bft) 95,74 %
01.08.2017 16:34 23,2 C 23,9 C 22,2 C 65 % 0 lf 1014,3 hPa 0,0 l/m 0 min 0 min 110 W/m 6,3 km/h (2 Bft) 95,74 %
01.08.2017 16:36 23,2 C 23,9 C 22,2 C 65 % 0 lf 1014,3 hPa 0,0 l/m 0 min 0 min 132 W/m 4,2 km/h (1 Bft) 95,74 %
01.08.2017 16:38 23,2 C 23,9 C 22,8 C 65 % 0 lf 1014,3 hPa 0,0 l/m 0 min 0 min 147 W/m 6,3 km/h (2 Bft) 97,87 %
01.08.2017 16:40 23,2 C 23,9 C 22,8 C 66 % 0 lf 1014,3 hPa 0,0 l/m 0 min 0 min 160 W/m 6,3 km/h (2 Bft) 97,83 %
01.08.2017 16:42 23,1 C 24,4 C 23,3 C 67 % 0 lf 1014,2 hPa 0,0 l/m 0 min 0 min 183 W/m 6,3 km/h (2 Bft) 97,87 %
01.08.2017 16:44 23,1 C 24,4 C 23,3 C 67 % 0 lf 1014,2 hPa 0,0 l/m 0 min 0 min 200 W/m 8,4 km/h (2 Bft) 97,87 %
01.08.2017 16:46 23,1 C 24,4 C 23,3 C 66 % 0 lf 1014,1 hPa 0,0 l/m 0 min 0 min 214 W/m 6,3 km/h (2 Bft) 97,87 %
01.08.2017 16:48 23,1 C 25,0 C 23,3 C 66 % 0 lf 1014,1 hPa 0,0 l/m 0 min 0 min 220 W/m 4,2 km/h (1 Bft) 97,87 %
01.08.2017 16:50 23,1 C 25,0 C 23,9 C 66 % 0 lf 1014,2 hPa 0,0 l/m 0 min 0 min 211 W/m 6,3 km/h (2 Bft) 97,87 %
01.08.2017 16:52 23,1 C 25,0 C 23,3 C 66 % 0 lf 1014,2 hPa 0,0 l/m 0 min 0 min 196 W/m 4,2 km/h (1 Bft) 95,65 %
01.08.2017 16:54 23,0 C 24,4 C 23,3 C 65 % 0 lf 1014,2 hPa 0,0 l/m 0 min 0 min 166 W/m 6,3 km/h (2 Bft) 95,74 %
01.08.2017 16:56 23,0 C 24,4 C 22,8 C 65 % 0 lf 1014,2 hPa 0,0 l/m 0 min 0 min 130 W/m 4,2 km/h (1 Bft) 95,74 %
01.08.2017 16:58 22,9 C 23,9 C 23,3 C 66 % 0 lf 1014,2 hPa 0,0 l/m 0 min 0 min 104 W/m 4,2 km/h (1 Bft) 97,87 %
01.08.2017 17:00 22,9 C 23,3 C 22,8 C 67 % 0 lf 1014,2 hPa 0,0 l/m 0 min 0 min 91 W/m 4,2 km/h (1 Bft) 95,74 %
01.08.2017 17:02 22,9 C 23,3 C 22,2 C 67 % 10 lf 1014,2 hPa 0,0 l/m 0 min 2 min 86 W/m 4,2 km/h (1 Bft) 100,00 %
01.08.2017 17:04 22,9 C 22,8 C 21,7 C 67 % 8 lf 1014,2 hPa 0,0 l/m 0 min 2 min 84 W/m 4,2 km/h (1 Bft) 100,00 %
01.08.2017 17:06 22,9 C 22,8 C 21,1 C 68 % 10 lf 1014,2 hPa 0,0 l/m 0 min 2 min 79 W/m 4,2 km/h (1 Bft) 100,00 %
01.08.2017 17:08 22,9 C 22,2 C 20,6 C 68 % 2 lf 1014,3 hPa 0,0 l/m 0 min 2 min 75 W/m 4,2 km/h (1 Bft) 97,87 %
01.08.2017 17:10 22,9 C 22,2 C 20,6 C 68 % 3 lf 1014,2 hPa 0,0 l/m 0 min 2 min 65 W/m 4,2 km/h (1 Bft) 95,74 %
01.08.2017 17:12 22,9 C 22,2 C 20,6 C 67 % 1 lf 1014,3 hPa 0,0 l/m 0 min 2 min 53 W/m 4,2 km/h (1 Bft) 100,00 %
01.08.2017 17:14 22,9 C 22,2 C 20,6 C 68 % 0 lf 1014,3 hPa 0,0 l/m 0 min 2 min 58 W/m 6,3 km/h (2 Bft) 95,74 %
01.08.2017 17:16 22,8 C 22,2 C 20,6 C 68 % 0 lf 1014,3 hPa 0,0 l/m 0 min 0 min 62 W/m 6,3 km/h (2 Bft) 97,83 %
01.08.2017 17:18 22,8 C 22,2 C 20,6 C 68 % 0 lf 1014,4 hPa 0,0 l/m 0 min 0 min 46 W/m 4,2 km/h (1 Bft) 97,87 %
01.08.2017 17:20 22,8 C 22,2 C 20,6 C 68 % 2 lf 1014,5 hPa 0,0 l/m 0 min 0 min 41 W/m 6,3 km/h (2 Bft) 95,74 %
01.08.2017 17:22 22,7 C 21,7 C 20,0 C 69 % 2 lf 1014,5 hPa 0,0 l/m 0 min 2 min 63 W/m 4,2 km/h (1 Bft) 97,87 %
01.08.2017 17:24 22,7 C 21,1 C 20,0 C 70 % 15 lf 1014,4 hPa 0,0 l/m 0 min 2 min 94 W/m 4,2 km/h (1 Bft) 97,87 %
01.08.2017 17:26 22,7 C 20,0 C 18,9 C 71 % 15 lf 1014,4 hPa 0,2 l/m 0 min 2 min 105 W/m 4,2 km/h (1 Bft) 97,87 %
01.08.2017 17:28 22,7 C 19,4 C 18,3 C 73 % 15 lf 1014,4 hPa 0,0 l/m 0 min 2 min 92 W/m 6,3 km/h (2 Bft) 97,83 %
01.08.2017 17:30 22,7 C 19,4 C 17,8 C 74 % 15 lf 1014,4 hPa 0,0 l/m 0 min 2 min 81 W/m 4,2 km/h (1 Bft) 97,87 %
01.08.2017 17:32 22,7 C 19,4 C 18,3 C 75 % 15 lf 1014,4 hPa 0,0 l/m 0 min 2 min 86 W/m 6,3 km/h (2 Bft) 95,74 %
01.08.2017 17:34 22,7 C 19,4 C 18,3 C 76 % 15 lf 1014,4 hPa 0,0 l/m 0 min 0 min 86 W/m 6,3 km/h (2 Bft) 97,87 %
01.08.2017 17:36 22,6 C 19,4 C 18,3 C 77 % 15 lf 1014,4 hPa 0,0 l/m 0 min 0 min 76 W/m 4,2 km/h (1 Bft) 97,87 %
01.08.2017 17:38 22,6 C 19,4 C 18,3 C 78 % 15 lf 1014,4 hPa 0,0 l/m 0 min 0 min 69 W/m 8,4 km/h (2 Bft) 97,87 %
01.08.2017 17:40 22,6 C 19,4 C 18,3 C 78 % 15 lf 1014,4 hPa 0,0 l/m 0 min 0 min 82 W/m 8,4 km/h (2 Bft) 95,65 %
01.08.2017 17:42 22,5 C 19,4 C 18,3 C 78 % 15 lf 1014,4 hPa 0,0 l/m 0 min 0 min 101 W/m 6,3 km/h (2 Bft) 97,87 %
01.08.2017 17:44 22,4 C 19,4 C 18,3 C 78 % 15 lf 1014,4 hPa 0,0 l/m 0 min 0 min 102 W/m 12,6 km/h (3 Bft) 97,87 %
01.08.2017 17:46 22,3 C 20,0 C 18,3 C 78 % 15 lf 1014,5 hPa 0,0 l/m 0 min 0 min 94 W/m 12,6 km/h (3 Bft) 100,00 %
01.08.2017 17:48 22,2 C 19,4 C 17,8 C 79 % 15 lf 1014,5 hPa 0,0 l/m 0 min 0 min 91 W/m 12,6 km/h (3 Bft) 100,00 %
01.08.2017 17:50 22,1 C 19,4 C 17,8 C 78 % 15 lf 1014,5 hPa 0,0 l/m 0 min 0 min 91 W/m 12,6 km/h (3 Bft) 95,74 %
01.08.2017 17:52 22,0 C 19,4 C 17,8 C 78 % 15 lf 1014,4 hPa 0,0 l/m 0 min 0 min 98 W/m 8,4 km/h (2 Bft) 100,00 %
01.08.2017 17:54 21,9 C 19,4 C 18,3 C 79 % 15 lf 1014,4 hPa 0,0 l/m 0 min 0 min 124 W/m 6,3 km/h (2 Bft) 97,87 %
01.08.2017 17:56 21,8 C 19,4 C 18,3 C 79 % 15 lf 1014,4 hPa 0,0 l/m 0 min 0 min 101 W/m 8,4 km/h (2 Bft) 97,87 %
01.08.2017 17:58 21,7 C 19,4 C 17,8 C 79 % 15 lf 1014,5 hPa 0,0 l/m 0 min 0 min 67 W/m 10,5 km/h (2 Bft) 100,00 %
01.08.2017 18:00 21,7 C 18,9 C 17,8 C 79 % 15 lf 1014,5 hPa 0,0 l/m 0 min 0 min 52 W/m 12,6 km/h (3 Bft) 97,87 %
01.08.2017 18:02 21,5 C 18,9 C 17,2 C 78 % 11 lf 1014,5 hPa 0,0 l/m 0 min 0 min 50 W/m 16,7 km/h (3 Bft) 100,00 %
01.08.2017 18:04 21,4 C 18,9 C 17,2 C 78 % 3 lf 1014,5 hPa 0,0 l/m 0 min 0 min 55 W/m 10,5 km/h (2 Bft) 100,00 %
01.08.2017 18:08 21,2 C 18,9 C 17,2 C 79 % 1 lf 1014,5 hPa 0,0 l/m 0 min 0 min 65 W/m 10,5 km/h (2 Bft) 97,06 %
01.08.2017 18:10 21,2 C 18,9 C 17,2 C 79 % 0 lf 1014,6 hPa 0,0 l/m 0 min 0 min 64 W/m 10,5 km/h (2 Bft) 97,87 %
01.08.2017 18:12 21,1 C 18,9 C 17,2 C 79 % 0 lf 1014,7 hPa 0,0 l/m 0 min 0 min 58 W/m 8,4 km/h (2 Bft) 97,87 %
01.08.2017 18:14 21,0 C 18,9 C 17,2 C 79 % 0 lf 1014,7 hPa 0,0 l/m 0 min 0 min 59 W/m 6,3 km/h (2 Bft) 97,83 %
01.08.2017 18:16 20,9 C 19,4 C 17,2 C 80 % 0 lf 1014,6 hPa 0,0 l/m 0 min 0 min 72 W/m 8,4 km/h (2 Bft) 93,62 %
01.08.2017 18:18 20,9 C 19,4 C 17,2 C 80 % 0 lf 1014,6 hPa 0,0 l/m 0 min 0 min 92 W/m 8,4 km/h (2 Bft) 95,74 %
01.08.2017 18:20 20,8 C 20,0 C 17,2 C 80 % 0 lf 1014,6 hPa 0,0 l/m 0 min 0 min 98 W/m 10,5 km/h (2 Bft) 95,74 %
01.08.2017 18:22 20,7 C 20,6 C 17,8 C 80 % 0 lf 1014,6 hPa 0,0 l/m 0 min 0 min 104 W/m 6,3 km/h (2 Bft) 95,74 %
01.08.2017 18:24 20,7 C 20,6 C 17,2 C 81 % 0 lf 1014,6 hPa 0,0 l/m 0 min 0 min 116 W/m 8,4 km/h (2 Bft) 95,74 %
01.08.2017 18:26 20,6 C 20,6 C 17,2 C 81 % 0 lf 1014,5 hPa 0,0 l/m 0 min 0 min 128 W/m 10,5 km/h (2 Bft) 97,83 %
01.08.2017 18:28 20,6 C 20,6 C 17,8 C 81 % 0 lf 1014,5 hPa 0,0 l/m 0 min 0 min 142 W/m 6,3 km/h (2 Bft) 97,87 %
01.08.2017 18:30 20,5 C 21,1 C 17,8 C 81 % 0 lf 1014,6 hPa 0,0 l/m 0 min 0 min 133 W/m 4,2 km/h (1 Bft) 97,87 %
01.08.2017 18:32 20,5 C 21,1 C 17,8 C 82 % 0 lf 1014,6 hPa 0,0 l/m 0 min 0 min 121 W/m 8,4 km/h (2 Bft) 95,74 %
01.08.2017 18:34 20,4 C 21,1 C 17,8 C 82 % 0 lf 1014,6 hPa 0,0 l/m 0 min 0 min 117 W/m 16,7 km/h (3 Bft) 97,87 %
01.08.2017 18:36 20,4 C 21,1 C 17,8 C 82 % 0 lf 1014,6 hPa 0,0 l/m 0 min 0 min 115 W/m 10,5 km/h (2 Bft) 97,87 %
01.08.2017 18:38 20,4 C 20,6 C 17,8 C 83 % 0 lf 1014,6 hPa 0,0 l/m 0 min 0 min 109 W/m 8,4 km/h (2 Bft) 95,65 %
01.08.2017 18:40 20,4 C 20,6 C 17,8 C 83 % 0 lf 1014,7 hPa 0,0 l/m 0 min 0 min 107 W/m 10,5 km/h (2 Bft) 93,62 %
01.08.2017 18:42 20,3 C 20,6 C 17,8 C 83 % 0 lf 1014,7 hPa 0,0 l/m 0 min 0 min 98 W/m 8,4 km/h (2 Bft) 95,74 %
01.08.2017 18:44 20,3 C 20,6 C 18,3 C 83 % 0 lf 1014,7 hPa 0,0 l/m 0 min 0 min 81 W/m 4,2 km/h (1 Bft) 93,62 %
01.08.2017 18:46 20,3 C 20,6 C 17,8 C 83 % 0 lf 1014,7 hPa 0,2 l/m 0 min 0 min 73 W/m 6,3 km/h (2 Bft) 95,74 %
01.08.2017 18:48 20,3 C 20,6 C 17,8 C 83 % 0 lf 1014,7 hPa 0,0 l/m 0 min 0 min 78 W/m 8,4 km/h (2 Bft) 95,65 %
01.08.2017 18:50 20,3 C 20,6 C 18,3 C 83 % 0 lf 1014,6 hPa 0,0 l/m 0 min 0 min 73 W/m 4,2 km/h (1 Bft) 91,49 %
01.08.2017 18:52 20,3 C 20,6 C 18,3 C 83 % 3 lf 1014,6 hPa 0,0 l/m 0 min 0 min 67 W/m 4,2 km/h (1 Bft) 95,74 %
01.08.2017 18:54 20,3 C 20,6 C 18,3 C 83 % 2 lf 1014,6 hPa 0,0 l/m 0 min 0 min 65 W/m 4,2 km/h (1 Bft) 95,74 %
01.08.2017 18:56 20,2 C 20,6 C 18,3 C 83 % 13 lf 1014,7 hPa 0,0 l/m 0 min 2 min 70 W/m 8,4 km/h (2 Bft) 93,62 %
01.08.2017 18:58 20,2 C 20,6 C 18,3 C 83 % 15 lf 1014,6 hPa 0,0 l/m 0 min 2 min 91 W/m 6,3 km/h (2 Bft) 93,62 %
01.08.2017 19:00 20,2 C 20,6 C 18,3 C 83 % 15 lf 1014,6 hPa 0,0 l/m 0 min 2 min 106 W/m 10,5 km/h (2 Bft) 93,48 %
01.08.2017 19:02 20,2 C 20,6 C 18,3 C 83 % 15 lf 1014,5 hPa 0,0 l/m 0 min 2 min 100 W/m 6,3 km/h (2 Bft) 95,74 %
01.08.2017 19:04 20,1 C 20,0 C 18,3 C 83 % 15 lf 1014,3 hPa 0,0 l/m 0 min 2 min 93 W/m 8,4 km/h (2 Bft) 87,23 %
01.08.2017 19:06 20,1 C 20,0 C 17,8 C 82 % 15 lf 1014,2 hPa 0,0 l/m 0 min 2 min 91 W/m 8,4 km/h (2 Bft) 91,49 %
01.08.2017 19:08 20,1 C 20,0 C 17,8 C 82 % 13 lf 1014,2 hPa 0,0 l/m 0 min 0 min 88 W/m 8,4 km/h (2 Bft) 93,62 %
01.08.2017 19:10 20,0 C 20,0 C 17,8 C 82 % 4 lf 1014,2 hPa 0,0 l/m 0 min 0 min 100 W/m 10,5 km/h (2 Bft) 93,62 %
01.08.2017 19:12 20,0 C 20,0 C 18,3 C 83 % 1 lf 1014,3 hPa 0,0 l/m 0 min 0 min 116 W/m 8,4 km/h (2 Bft) 86,96 %
01.08.2017 19:14 19,9 C 20,0 C 18,3 C 83 % 0 lf 1014,3 hPa 0,0 l/m 0 min 0 min 132 W/m 12,6 km/h (3 Bft) 91,49 %
01.08.2017 19:16 19,9 C 20,0 C 18,9 C 83 % 0 lf 1014,1 hPa 0,0 l/m 2 min 0 min 192 W/m 6,3 km/h (2 Bft) 91,49 %
01.08.2017 19:18 19,9 C 20,0 C 18,9 C 84 % 0 lf 1013,9 hPa 0,0 l/m 2 min 0 min 188 W/m 14,6 km/h (3 Bft) 93,62 %
01.08.2017 19:20 19,9 C 20,6 C 18,9 C 84 % 0 lf 1014,0 hPa 0,0 l/m 2 min 0 min 301 W/m 8,4 km/h (2 Bft) 93,62 %
01.08.2017 19:22 19,9 C 20,6 C 19,4 C 84 % 0 lf 1014,1 hPa 0,0 l/m 2 min 0 min 289 W/m 8,4 km/h (2 Bft) 93,62 %
01.08.2017 19:24 19,9 C 20,6 C 19,4 C 85 % 0 lf 1014,2 hPa 0,0 l/m 2 min 0 min 268 W/m 10,5 km/h (2 Bft) 93,48 %
01.08.2017 19:26 19,9 C 20,6 C 19,4 C 85 % 0 lf 1014,2 hPa 0,0 l/m 2 min 0 min 247 W/m 12,6 km/h (3 Bft) 91,49 %
01.08.2017 19:28 19,9 C 20,6 C 19,4 C 85 % 0 lf 1014,3 hPa 0,0 l/m 2 min 0 min 235 W/m 8,4 km/h (2 Bft) 93,62 %
01.08.2017 19:30 19,9 C 21,1 C 19,4 C 85 % 0 lf 1014,3 hPa 0,0 l/m 2 min 0 min 223 W/m 8,4 km/h (2 Bft) 93,62 %
01.08.2017 19:32 19,9 C 21,1 C 19,4 C 86 % 0 lf 1014,3 hPa 0,0 l/m 2 min 0 min 229 W/m 6,3 km/h (2 Bft) 93,62 %
01.08.2017 19:34 19,9 C 21,1 C 19,4 C 86 % 0 lf 1014,4 hPa 0,0 l/m 2 min 0 min 219 W/m 12,6 km/h (3 Bft) 95,74 %
01.08.2017 19:36 19,9 C 20,6 C 19,4 C 85 % 0 lf 1014,4 hPa 0,0 l/m 2 min 0 min 202 W/m 14,6 km/h (3 Bft) 95,65 %
01.08.2017 19:38 19,9 C 20,6 C 19,4 C 85 % 0 lf 1014,4 hPa 0,0 l/m 2 min 0 min 127 W/m 12,6 km/h (3 Bft) 95,74 %
01.08.2017 19:40 19,9 C 20,6 C 19,4 C 85 % 0 lf 1014,5 hPa 0,0 l/m 0 min 0 min 89 W/m 8,4 km/h (2 Bft) 95,74 %
01.08.2017 19:42 19,9 C 20,0 C 18,9 C 85 % 0 lf 1014,5 hPa 0,0 l/m 0 min 0 min 69 W/m 16,7 km/h (3 Bft) 93,62 %
01.08.2017 19:44 19,9 C 20,0 C 18,9 C 84 % 0 lf 1014,5 hPa 0,0 l/m 0 min 0 min 69 W/m 12,6 km/h (3 Bft) 97,87 %
01.08.2017 19:46 19,8 C 20,0 C 18,9 C 84 % 0 lf 1014,6 hPa 0,0 l/m 0 min 0 min 64 W/m 10,5 km/h (2 Bft) 93,62 %
01.08.2017 19:48 19,8 C 20,0 C 18,9 C 84 % 0 lf 1014,6 hPa 0,0 l/m 0 min 0 min 51 W/m 10,5 km/h (2 Bft) 97,83 %
01.08.2017 19:50 19,8 C 20,0 C 18,9 C 84 % 0 lf 1014,6 hPa 0,0 l/m 0 min 0 min 41 W/m 6,3 km/h (2 Bft) 100,00 %
01.08.2017 19:52 19,8 C 19,4 C 18,9 C 84 % 0 lf 1014,7 hPa 0,0 l/m 0 min 0 min 36 W/m 8,4 km/h (2 Bft) 100,00 %
01.08.2017 19:54 19,7 C 19,4 C 18,9 C 83 % 0 lf 1014,7 hPa 0,0 l/m 0 min 0 min 34 W/m 12,6 km/h (3 Bft) 100,00 %
01.08.2017 19:56 19,7 C 19,4 C 18,3 C 82 % 0 lf 1014,7 hPa 0,0 l/m 0 min 0 min 33 W/m 8,4 km/h (2 Bft) 100,00 %
01.08.2017 19:58 19,7 C 19,4 C 18,3 C 82 % 0 lf 1014,7 hPa 0,0 l/m 0 min 0 min 44 W/m 14,6 km/h (3 Bft) 100,00 %
01.08.2017 20:00 19,6 C 19,4 C 18,3 C 82 % 0 lf 1014,8 hPa 0,0 l/m 0 min 0 min 64 W/m 8,4 km/h (2 Bft) 97,83 %
01.08.2017 20:02 19,6 C 19,4 C 18,3 C 82 % 0 lf 1014,8 hPa 0,0 l/m 0 min 0 min 73 W/m 10,5 km/h (2 Bft) 95,74 %
01.08.2017 20:04 19,6 C 19,4 C 18,3 C 82 % 0 lf 1014,8 hPa 0,0 l/m 0 min 0 min 83 W/m 8,4 km/h (2 Bft) 97,87 %
01.08.2017 20:06 19,6 C 19,4 C 18,9 C 82 % 0 lf 1014,7 hPa 0,0 l/m 2 min 0 min 87 W/m 8,4 km/h (2 Bft) 100,00 %
01.08.2017 20:08 19,6 C 19,4 C 18,9 C 82 % 0 lf 1014,7 hPa 0,0 l/m 0 min 0 min 79 W/m 8,4 km/h (2 Bft) 100,00 %
01.08.2017 20:10 19,6 C 19,4 C 18,3 C 82 % 0 lf 1014,7 hPa 0,0 l/m 0 min 0 min 63 W/m 8,4 km/h (2 Bft) 100,00 %
01.08.2017 20:12 19,6 C 19,4 C 18,3 C 82 % 0 lf 1014,7 hPa 0,0 l/m 0 min 0 min 49 W/m 6,3 km/h (2 Bft) 97,92 %
01.08.2017 20:14 19,6 C 19,4 C 18,3 C 82 % 0 lf 1014,8 hPa 0,0 l/m 0 min 0 min 38 W/m 6,3 km/h (2 Bft) 100,00 %
01.08.2017 20:16 19,6 C 19,4 C 18,3 C 82 % 0 lf 1014,8 hPa 0,0 l/m 0 min 0 min 34 W/m 6,3 km/h (2 Bft) 100,00 %
01.08.2017 20:18 19,5 C 18,9 C 17,8 C 83 % 0 lf 1014,7 hPa 0,0 l/m 0 min 0 min 33 W/m 6,3 km/h (2 Bft) 100,00 %
01.08.2017 20:20 19,5 C 18,9 C 17,8 C 83 % 0 lf 1014,7 hPa 0,0 l/m 0 min 0 min 33 W/m 2,1 km/h (1 Bft) 100,00 %
01.08.2017 20:22 19,5 C 18,9 C 17,8 C 83 % 0 lf 1014,8 hPa 0,0 l/m 0 min 0 min 30 W/m 2,1 km/h (1 Bft) 100,00 %
01.08.2017 20:24 19,5 C 18,9 C 17,8 C 83 % 0 lf 1014,8 hPa 0,0 l/m 0 min 0 min 26 W/m 6,3 km/h (2 Bft) 97,87 %
01.08.2017 20:26 19,5 C 18,9 C 17,8 C 83 % 0 lf 1014,9 hPa 0,0 l/m 0 min 0 min 24 W/m 4,2 km/h (1 Bft) 97,87 %
01.08.2017 20:28 19,4 C 18,9 C 17,8 C 83 % 0 lf 1014,9 hPa 0,0 l/m 0 min 0 min 24 W/m 4,2 km/h (1 Bft) 100,00 %
01.08.2017 20:30 19,4 C 18,9 C 17,8 C 83 % 0 lf 1015,0 hPa 0,0 l/m 0 min 0 min 25 W/m 4,2 km/h (1 Bft) 97,87 %
01.08.2017 20:32 19,4 C 18,9 C 17,8 C 83 % 0 lf 1014,9 hPa 0,0 l/m 0 min 0 min 25 W/m 4,2 km/h (1 Bft) 100,00 %
01.08.2017 20:34 19,4 C 18,9 C 17,8 C 83 % 0 lf 1015,0 hPa 0,0 l/m 0 min 0 min 23 W/m 4,2 km/h (1 Bft) 100,00 %
01.08.2017 20:36 19,4 C 18,9 C 17,8 C 83 % 0 lf 1015,1 hPa 0,0 l/m 0 min 0 min 21 W/m 2,1 km/h (1 Bft) 97,87 %
01.08.2017 20:38 19,4 C 18,9 C 17,8 C 83 % 0 lf 1015,1 hPa 0,0 l/m 0 min 0 min 23 W/m 0,0 km/h (0 Bft) 100,00 %
01.08.2017 20:40 19,4 C 18,9 C 17,8 C 84 % 0 lf 1015,1 hPa 0,0 l/m 0 min 0 min 28 W/m 6,3 km/h (2 Bft) 100,00 %
01.08.2017 20:42 19,4 C 18,9 C 17,8 C 84 % 0 lf 1015,1 hPa 0,0 l/m 0 min 0 min 33 W/m 6,3 km/h (2 Bft) 100,00 %
01.08.2017 20:44 19,4 C 18,9 C 17,8 C 84 % 0 lf 1015,1 hPa 0,0 l/m 0 min 0 min 30 W/m 6,3 km/h (2 Bft) 100,00 %
01.08.2017 20:46 19,3 C 18,9 C 17,8 C 84 % 0 lf 1015,1 hPa 0,0 l/m 0 min 0 min 24 W/m 4,2 km/h (1 Bft) 95,65 %
01.08.2017 20:48 19,3 C 18,9 C 17,8 C 84 % 0 lf 1015,2 hPa 0,0 l/m 0 min 0 min 20 W/m 2,1 km/h (1 Bft) 100,00 %
01.08.2017 20:50 19,3 C 18,9 C 17,8 C 84 % 0 lf 1015,2 hPa 0,0 l/m 0 min 0 min 19 W/m 4,2 km/h (1 Bft) 100,00 %
01.08.2017 20:52 19,3 C 18,9 C 17,8 C 84 % 0 lf 1015,3 hPa 0,0 l/m 0 min 0 min 18 W/m 0,0 km/h (0 Bft) 97,87 %
01.08.2017 20:54 19,3 C 18,9 C 17,8 C 84 % 0 lf 1015,4 hPa 0,0 l/m 0 min 0 min 16 W/m 2,1 km/h (1 Bft) 97,87 %
01.08.2017 20:56 19,2 C 18,9 C 17,8 C 84 % 0 lf 1015,4 hPa 0,0 l/m 0 min 0 min 14 W/m 2,1 km/h (1 Bft) 100,00 %
01.08.2017 20:58 19,3 C 18,9 C 17,8 C 84 % 0 lf 1015,4 hPa 0,0 l/m 0 min 0 min 16 W/m 2,1 km/h (1 Bft) 100,00 %
01.08.2017 21:00 19,3 C 18,9 C 17,8 C 85 % 0 lf 1015,5 hPa 0,0 l/m 0 min 0 min 16 W/m 2,1 km/h (1 Bft) 100,00 %
01.08.2017 21:02 19,3 C 18,9 C 17,8 C 85 % 0 lf 1015,5 hPa 0,0 l/m 0 min 0 min 13 W/m 2,1 km/h (1 Bft) 100,00 %
01.08.2017 21:04 19,3 C 18,9 C 17,8 C 85 % 0 lf 1015,5 hPa 0,0 l/m 0 min 0 min 11 W/m 0,0 km/h (0 Bft) 97,14 %
01.08.2017 21:06 19,3 C 18,9 C 17,8 C 86 % 0 lf 1015,5 hPa 0,0 l/m 0 min 0 min 11 W/m 4,2 km/h (1 Bft) 98,18 %
01.08.2017 21:08 19,3 C 18,9 C 17,8 C 86 % 0 lf 1015,5 hPa 0,0 l/m 0 min 0 min 11 W/m 4,2 km/h (1 Bft) 97,87 %
01.08.2017 21:10 19,3 C 18,3 C 17,8 C 86 % 0 lf 1015,6 hPa 0,0 l/m 0 min 0 min 11 W/m 2,1 km/h (1 Bft) 100,00 %
01.08.2017 21:12 19,3 C 18,3 C 17,2 C 86 % 0 lf 1015,6 hPa 0,0 l/m 0 min 0 min 9 W/m 0,0 km/h (0 Bft) 97,87 %
01.08.2017 21:14 19,2 C 18,3 C 17,2 C 86 % 0 lf 1015,7 hPa 0,0 l/m 0 min 0 min 7 W/m 0,0 km/h (0 Bft) 95,74 %
01.08.2017 21:16 19,2 C 18,3 C 17,2 C 86 % 0 lf 1015,6 hPa 0,0 l/m 0 min 0 min 7 W/m 0,0 km/h (0 Bft) 97,87 %
01.08.2017 21:18 19,2 C 18,3 C 17,2 C 86 % 0 lf 1015,7 hPa 0,0 l/m 0 min 0 min 5 W/m 0,0 km/h (0 Bft) 95,74 %
01.08.2017 21:20 19,2 C 18,3 C 17,2 C 86 % 0 lf 1015,6 hPa 0,0 l/m 0 min 0 min 5 W/m 0,0 km/h (0 Bft) 97,87 %
01.08.2017 21:22 19,2 C 18,3 C 16,7 C 86 % 0 lf 1015,6 hPa 0,0 l/m 0 min 0 min 5 W/m 0,0 km/h (0 Bft) 95,65 %
01.08.2017 21:24 19,2 C 17,8 C 16,7 C 86 % 0 lf 1015,6 hPa 0,0 l/m 0 min 0 min 5 W/m 0,0 km/h (0 Bft) 97,87 %
01.08.2017 21:26 19,2 C 17,8 C 16,7 C 86 % 0 lf 1015,7 hPa 0,0 l/m 0 min 0 min 0 W/m 0,0 km/h (0 Bft) 95,74 %
01.08.2017 21:28 19,2 C 17,8 C 16,7 C 86 % 0 lf 1015,7 hPa 0,0 l/m 0 min 0 min 0 W/m 0,0 km/h (0 Bft) 95,74 %
01.08.2017 21:30 19,2 C 17,8 C 16,1 C 86 % 0 lf 1015,7 hPa 0,0 l/m 0 min 0 min 0 W/m 0,0 km/h (0 Bft) 97,87 %
01.08.2017 21:32 19,1 C 17,2 C 16,1 C 86 % 0 lf 1015,7 hPa 0,0 l/m 0 min 0 min 0 W/m 0,0 km/h (0 Bft) 97,87 %
01.08.2017 21:34 19,1 C 17,2 C 16,1 C 86 % 0 lf 1015,7 hPa 0,0 l/m 0 min 0 min 0 W/m 0,0 km/h (0 Bft) 97,83 %
01.08.2017 21:36 19,1 C 17,2 C 15,6 C 86 % 0 lf 1015,8 hPa 0,0 l/m 0 min 0 min 0 W/m 2,1 km/h (1 Bft) 97,87 %
01.08.2017 21:38 19,0 C 17,2 C 15,6 C 86 % 0 lf 1015,7 hPa 0,0 l/m 0 min 0 min 0 W/m 0,0 km/h (0 Bft) 95,74 %
01.08.2017 21:40 19,0 C 17,2 C 15,6 C 86 % 0 lf 1015,8 hPa 0,0 l/m 0 min 0 min 0 W/m 2,1 km/h (1 Bft) 95,74 %
01.08.2017 21:42 19,0 C 17,2 C 15,6 C 86 % 0 lf 1015,7 hPa 0,0 l/m 0 min 0 min 0 W/m 2,1 km/h (1 Bft) 93,62 %
01.08.2017 21:44 18,9 C 17,2 C 15,6 C 87 % 0 lf 1015,7 hPa 0,0 l/m 0 min 0 min 0 W/m 2,1 km/h (1 Bft) 89,36 %
01.08.2017 21:46 18,9 C 17,2 C 15,6 C 87 % 0 lf 1015,7 hPa 0,0 l/m 0 min 0 min 0 W/m 4,2 km/h (1 Bft) 86,96 %
01.08.2017 21:48 18,8 C 17,2 C 15,6 C 87 % 0 lf 1015,7 hPa 0,0 l/m 0 min 0 min 0 W/m 4,2 km/h (1 Bft) 93,62 %
01.08.2017 21:50 18,8 C 17,2 C 15,6 C 87 % 0 lf 1015,7 hPa 0,0 l/m 0 min 0 min 0 W/m 4,2 km/h (1 Bft) 95,74 %
01.08.2017 21:52 18,8 C 17,2 C 15,6 C 87 % 0 lf 1015,7 hPa 0,0 l/m 0 min 0 min 0 W/m 2,1 km/h (1 Bft) 93,62 %
01.08.2017 21:54 18,7 C 17,2 C 15,6 C 87 % 0 lf 1015,8 hPa 0,0 l/m 0 min 0 min 0 W/m 2,1 km/h (1 Bft) 91,49 %
01.08.2017 21:56 18,7 C 16,7 C 15,6 C 87 % 1 lf 1015,8 hPa 0,0 l/m 0 min 0 min 0 W/m 0,0 km/h (0 Bft) 91,30 %
01.08.2017 21:58 18,6 C 16,7 C 15,6 C 87 % 1 lf 1015,8 hPa 0,0 l/m 0 min 0 min 0 W/m 0,0 km/h (0 Bft) 95,74 %
01.08.2017 22:00 18,6 C 16,7 C 15,0 C 87 % 1 lf 1015,8 hPa 0,0 l/m 0 min 0 min 0 W/m 2,1 km/h (1 Bft) 93,62 %
01.08.2017 22:03 18,5 C 16,7 C 15,0 C 87 % 1 lf 1015,9 hPa 0,0 l/m 0 min 0 min 0 W/m 2,1 km/h (1 Bft) 94,29 %
01.08.2017 22:04 18,5 C 16,7 C 15,0 C 87 % 1 lf 1015,9 hPa 0,0 l/m 0 min 0 min 0 W/m 2,1 km/h (1 Bft) 91,67 %
01.08.2017 22:06 18,4 C 16,1 C 15,0 C 87 % 1 lf 1015,9 hPa 0,0 l/m 0 min 0 min 0 W/m 2,1 km/h (1 Bft) 93,62 %
01.08.2017 22:08 18,4 C 16,7 C 15,0 C 87 % 1 lf 1015,9 hPa 0,0 l/m 0 min 0 min 0 W/m 2,1 km/h (1 Bft) 93,48 %
01.08.2017 22:10 18,4 C 16,7 C 15,0 C 87 % 1 lf 1015,9 hPa 0,0 l/m 0 min 0 min 0 W/m 0,0 km/h (0 Bft) 93,62 %
01.08.2017 22:12 18,3 C 16,7 C 15,0 C 87 % 1 lf 1015,9 hPa 0,0 l/m 0 min 0 min 0 W/m 2,1 km/h (1 Bft) 93,62 %
01.08.2017 22:14 18,3 C 16,1 C 15,0 C 87 % 1 lf 1015,9 hPa 0,0 l/m 0 min 0 min 0 W/m 2,1 km/h (1 Bft) 93,62 %
01.08.2017 22:16 18,2 C 16,1 C 14,4 C 87 % 1 lf 1016,0 hPa 0,0 l/m 0 min 0 min 0 W/m 0,0 km/h (0 Bft) 91,49 %
01.08.2017 22:18 18,2 C 16,1 C 14,4 C 87 % 1 lf 1016,0 hPa 0,0 l/m 0 min 0 min 0 W/m 0,0 km/h (0 Bft) 93,62 %
01.08.2017 22:20 18,1 C 16,1 C 14,4 C 87 % 1 lf 1015,9 hPa 0,0 l/m 0 min 0 min 0 W/m 0,0 km/h (0 Bft) 89,13 %
01.08.2017 22:22 18,1 C 15,6 C 14,4 C 87 % 1 lf 1016,0 hPa 0,0 l/m 0 min 0 min 0 W/m 0,0 km/h (0 Bft) 93,62 %
01.08.2017 22:24 18,1 C 15,6 C 14,4 C 87 % 1 lf 1016,0 hPa 0,0 l/m 0 min 0 min 0 W/m 0,0 km/h (0 Bft) 91,49 %
01.08.2017 22:26 18,0 C 15,6 C 14,4 C 87 % 1 lf 1016,0 hPa 0,0 l/m 0 min 0 min 2 W/m 2,1 km/h (1 Bft) 91,49 %
01.08.2017 22:28 17,9 C 15,6 C 14,4 C 87 % 1 lf 1015,9 hPa 0,0 l/m 0 min 0 min 0 W/m 2,1 km/h (1 Bft) 89,36 %
01.08.2017 22:30 17,9 C 15,6 C 14,4 C 87 % 2 lf 1016,0 hPa 0,0 l/m 0 min 0 min 0 W/m 2,1 km/h (1 Bft) 95,74 %
01.08.2017 22:32 17,8 C 15,6 C 14,4 C 87 % 2 lf 1016,0 hPa 0,0 l/m 0 min 0 min 2 W/m 0,0 km/h (0 Bft) 95,65 %
01.08.2017 22:34 17,8 C 15,6 C 14,4 C 87 % 2 lf 1016,0 hPa 0,0 l/m 0 min 0 min 5 W/m 0,0 km/h (0 Bft) 95,74 %
01.08.2017 22:36 17,8 C 15,6 C 14,4 C 88 % 2 lf 1015,9 hPa 0,0 l/m 0 min 0 min 0 W/m 0,0 km/h (0 Bft) 97,87 %
01.08.2017 22:38 17,7 C 15,6 C 14,4 C 88 % 2 lf 1016,0 hPa 0,0 l/m 0 min 0 min 5 W/m 0,0 km/h (0 Bft) 93,62 %
01.08.2017 22:40 17,7 C 15,6 C 14,4 C 88 % 2 lf 1015,9 hPa 0,0 l/m 0 min 0 min 5 W/m 0,0 km/h (0 Bft) 95,74 %
01.08.2017 22:42 17,7 C 15,0 C 13,9 C 88 % 2 lf 1015,8 hPa 0,0 l/m 0 min 0 min 5 W/m 0,0 km/h (0 Bft) 97,87 %
01.08.2017 22:44 17,6 C 15,0 C 14,4 C 88 % 2 lf 1015,8 hPa 0,0 l/m 0 min 0 min 0 W/m 0,0 km/h (0 Bft) 97,83 %
01.08.2017 22:46 17,6 C 15,0 C 14,4 C 88 % 2 lf 1015,9 hPa 0,0 l/m 0 min 0 min 5 W/m 0,0 km/h (0 Bft) 100,00 %
01.08.2017 22:48 17,6 C 15,0 C 14,4 C 88 % 2 lf 1015,8 hPa 0,0 l/m 0 min 0 min 0 W/m 2,1 km/h (1 Bft) 97,87 %
01.08.2017 22:50 17,5 C 15,0 C 14,4 C 88 % 2 lf 1015,8 hPa 0,0 l/m 0 min 0 min 0 W/m 2,1 km/h (1 Bft) 97,87 %
01.08.2017 22:52 17,4 C 15,0 C 14,4 C 88 % 2 lf 1015,8 hPa 0,0 l/m 0 min 0 min 5 W/m 0,0 km/h (0 Bft) 100,00 %
01.08.2017 22:54 17,4 C 15,0 C 13,9 C 89 % 2 lf 1015,7 hPa 0,0 l/m 0 min 0 min 2 W/m 0,0 km/h (0 Bft) 97,87 %
01.08.2017 22:56 17,4 C 15,0 C 13,9 C 89 % 3 lf 1015,7 hPa 0,0 l/m 0 min 0 min 0 W/m 0,0 km/h (0 Bft) 100,00 %
01.08.2017 22:58 17,3 C 15,0 C 13,9 C 89 % 3 lf 1015,7 hPa 0,0 l/m 0 min 0 min 1 W/m 0,0 km/h (0 Bft) 100,00 %
01.08.2017 23:00 17,3 C 15,6 C 13,9 C 89 % 3 lf 1015,7 hPa 0,0 l/m 0 min 0 min 3 W/m 2,1 km/h (1 Bft) 95,74 %
01.08.2017 23:02 17,3 C 15,6 C 13,9 C 89 % 3 lf 1015,7 hPa 0,0 l/m 0 min 0 min 5 W/m 2,1 km/h (1 Bft) 100,00 %
01.08.2017 23:04 17,2 C 15,6 C 13,9 C 89 % 3 lf 1015,7 hPa 0,0 l/m 0 min 0 min 0 W/m 2,1 km/h (1 Bft) 100,00 %
01.08.2017 23:06 17,2 C 15,6 C 13,9 C 89 % 3 lf 1015,7 hPa 0,0 l/m 0 min 0 min 0 W/m 2,1 km/h (1 Bft) 100,00 %
01.08.2017 23:08 17,1 C 15,6 C 13,9 C 89 % 3 lf 1015,8 hPa 0,0 l/m 0 min 0 min 5 W/m 4,2 km/h (1 Bft) 97,87 %
01.08.2017 23:10 17,1 C 15,0 C 13,9 C 89 % 3 lf 1015,8 hPa 0,0 l/m 0 min 0 min 0 W/m 2,1 km/h (1 Bft) 97,87 %
01.08.2017 23:12 17,1 C 15,0 C 13,9 C 89 % 4 lf 1015,9 hPa 0,0 l/m 0 min 0 min 0 W/m 0,0 km/h (0 Bft) 97,87 %
01.08.2017 23:14 17,0 C 15,0 C 13,9 C 89 % 4 lf 1015,9 hPa 0,0 l/m 0 min 0 min 0 W/m 0,0 km/h (0 Bft) 97,87 %
01.08.2017 23:16 17,0 C 15,0 C 13,9 C 89 % 4 lf 1015,9 hPa 0,0 l/m 0 min 0 min 0 W/m 0,0 km/h (0 Bft) 95,74 %
01.08.2017 23:18 16,9 C 15,0 C 13,9 C 89 % 4 lf 1016,0 hPa 0,0 l/m 0 min 0 min 0 W/m 0,0 km/h (0 Bft) 95,65 %
01.08.2017 23:20 16,9 C 15,0 C 13,9 C 89 % 4 lf 1016,0 hPa 0,0 l/m 0 min 0 min 0 W/m 0,0 km/h (0 Bft) 97,87 %
01.08.2017 23:22 16,9 C 15,0 C 13,9 C 90 % 5 lf 1016,0 hPa 0,0 l/m 0 min 0 min 0 W/m 0,0 km/h (0 Bft) 97,87 %
01.08.2017 23:24 16,8 C 15,0 C 13,9 C 90 % 5 lf 1016,0 hPa 0,0 l/m 0 min 0 min 0 W/m 0,0 km/h (0 Bft) 97,87 %
01.08.2017 23:26 16,8 C 14,4 C 13,9 C 90 % 6 lf 1016,0 hPa 0,0 l/m 0 min 0 min 0 W/m 0,0 km/h (0 Bft) 97,87 %
01.08.2017 23:28 16,8 C 14,4 C 13,9 C 90 % 6 lf 1016,0 hPa 0,0 l/m 0 min 0 min 0 W/m 0,0 km/h (0 Bft) 95,74 %
01.08.2017 23:30 16,7 C 14,4 C 13,9 C 90 % 7 lf 1016,1 hPa 0,0 l/m 0 min 0 min 0 W/m 0,0 km/h (0 Bft) 97,83 %
01.08.2017 23:32 16,7 C 14,4 C 13,9 C 90 % 7 lf 1016,1 hPa 0,0 l/m 0 min 0 min 0 W/m 0,0 km/h (0 Bft) 95,74 %
01.08.2017 23:34 16,7 C 14,4 C 13,9 C 90 % 8 lf 1016,0 hPa 0,0 l/m 0 min 0 min 0 W/m 0,0 km/h (0 Bft) 97,87 %
01.08.2017 23:36 16,6 C 14,4 C 13,9 C 90 % 9 lf 1016,1 hPa 0,0 l/m 0 min 0 min 0 W/m 0,0 km/h (0 Bft) 95,74 %
01.08.2017 23:38 16,6 C 14,4 C 13,3 C 90 % 9 lf 1016,1 hPa 0,0 l/m 0 min 0 min 0 W/m 0,0 km/h (0 Bft) 95,74 %
01.08.2017 23:40 16,6 C 14,4 C 13,3 C 90 % 10 lf 1016,1 hPa 0,0 l/m 0 min 0 min 0 W/m 0,0 km/h (0 Bft) 97,87 %
01.08.2017 23:42 16,5 C 14,4 C 13,9 C 90 % 11 lf 1016,1 hPa 0,0 l/m 0 min 0 min 0 W/m 0,0 km/h (0 Bft) 100,00 %
01.08.2017 23:44 16,5 C 14,4 C 13,9 C 90 % 11 lf 1016,1 hPa 0,0 l/m 0 min 0 min 0 W/m 0,0 km/h (0 Bft) 97,87 %
01.08.2017 23:46 16,4 C 14,4 C 13,9 C 90 % 12 lf 1016,1 hPa 0,0 l/m 0 min 0 min 0 W/m 0,0 km/h (0 Bft) 100,00 %
01.08.2017 23:48 16,4 C 14,4 C 13,9 C 91 % 12 lf 1016,1 hPa 0,0 l/m 0 min 0 min 0 W/m 0,0 km/h (0 Bft) 100,00 %
01.08.2017 23:50 16,4 C 14,4 C 13,3 C 91 % 12 lf 1016,1 hPa 0,0 l/m 0 min 0 min 0 W/m 0,0 km/h (0 Bft) 100,00 %
01.08.2017 23:52 16,3 C 14,4 C 13,3 C 91 % 12 lf 1016,1 hPa 0,0 l/m 0 min 0 min 0 W/m 0,0 km/h (0 Bft) 100,00 %
01.08.2017 23:54 16,3 C 14,4 C 13,3 C 91 % 13 lf 1016,1 hPa 0,0 l/m 0 min 0 min 0 W/m 0,0 km/h (0 Bft) 100,00 %
01.08.2017 23:56 16,3 C 14,4 C 13,3 C 90 % 13 lf 1016,1 hPa 0,0 l/m 0 min 0 min 0 W/m 0,0 km/h (0 Bft) 97,87 %
01.08.2017 23:58 16,2 C 13,9 C 13,3 C 91 % 13 lf 1016,1 hPa 0,0 l/m 0 min 0 min 0 W/m 0,0 km/h (0 Bft) 95,74 %
_ Min-Zeit 06:46 23:58 23:38 15:54 00:00 01:38 - - - - 00:42 00:04
Minimum _ 16,0 C 13,9 C 13,3 C 65 % 0 lf 1011,5 hPa - - - - 0,0 km/h (0 Bft) 4,76 %
_ Max-Zeit 16:16 13:08 12:14 07:06 01:18 23:30 01:38 06:22 00:56 11:44 18:02 01:40
Maximum _ 23,3 C 27,8 C 26,1 C 92 % 15 lf 1016,1 hPa 0,2 l/m 2 min 2 min 783 W/m 16,7 km/h
N-NW (3 Bft)
100,00 %
Durchschnitt _ 19,5 C 19,5 C 18,5 C 81 % 2 lf 1013,7 hPa #0,6 l/m #2:20 h #1:36 h 147 W/m 4,7 km/h (1 Bft) 95,98 %
© 2017 W. Hausmann